GFSSW_prec_pwat_000.txt.gz
Precipitable_Water
0.49 0.47 0.48 0.51 0.55 0.52 0.49 0.48 0.50 0.51 0.51 0.53 0.60 0.52 0.51 0.54 0.51 0.41 0.21 0.25 0.39 0.51 0.66 0.63 0.67 0.73 0.94 1.01 1.17 1.21 0.90 0.83 0.78 0.70 0.74 0.86 0.79 0.96 0.91 0.81 0.91 1.05 0.90 1.13 1.39
0.48 0.47 0.46 0.46 0.51 0.54 0.50 0.47 0.48 0.50 0.50 0.52 0.62 0.57 0.49 0.50 0.37 0.23 0.22 0.26 0.38 0.51 0.53 0.56 0.56 0.61 0.69 0.76 0.88 0.94 0.85 0.87 0.91 0.85 0.77 0.87 0.88 0.89 0.79 0.74 0.80 0.87 1.10 1.32 1.42
0.48 0.46 0.45 0.44 0.46 0.52 0.51 0.48 0.46 0.48 0.49 0.52 0.62 0.60 0.48 0.45 0.23 0.16 0.34 0.28 0.35 0.48 0.49 0.51 0.55 0.66 0.67 0.68 0.71 0.71 0.74 0.89 0.89 0.92 0.92 0.89 0.92 1.00 0.89 0.72 0.82 0.73 0.94 1.21 1.31
0.49 0.46 0.45 0.43 0.43 0.48 0.51 0.49 0.44 0.47 0.48 0.50 0.62 0.59 0.47 0.37 0.07 0.31 0.38 0.36 0.38 0.41 0.41 0.47 0.58 0.61 0.62 0.63 0.70 0.72 0.82 0.87 0.91 0.97 0.91 0.91 0.97 0.87 0.94 0.80 0.96 0.93 1.02 1.16 1.19
0.51 0.48 0.45 0.43 0.42 0.44 0.49 0.48 0.46 0.44 0.48 0.50 0.60 0.58 0.40 0.22 0.13 0.32 0.32 0.36 0.35 0.35 0.44 0.50 0.54 0.59 0.56 0.59 0.56 0.72 0.79 0.91 0.92 0.85 0.83 0.83 0.75 0.75 0.87 0.93 1.03 1.02 1.05 1.08 1.17
0.55 0.49 0.47 0.44 0.42 0.41 0.45 0.47 0.45 0.43 0.48 0.51 0.59 0.56 0.30 0.13 0.17 0.32 0.32 0.33 0.27 0.35 0.45 0.49 0.57 0.63 0.55 0.51 0.62 0.82 0.81 0.83 0.77 0.76 0.68 0.47 0.52 0.64 0.91 0.98 0.97 0.95 0.94 1.04 1.12
0.55 0.55 0.49 0.46 0.42 0.40 0.41 0.45 0.43 0.43 0.49 0.53 0.60 0.53 0.29 0.18 0.28 0.36 0.38 0.28 0.26 0.30 0.40 0.48 0.57 0.56 0.50 0.50 0.64 0.77 0.70 0.74 0.72 0.73 0.75 0.70 0.70 0.57 0.84 0.95 0.87 0.89 0.90 0.96 1.05
0.49 0.54 0.53 0.47 0.43 0.40 0.40 0.43 0.41 0.44 0.52 0.61 0.66 0.53 0.18 0.33 0.44 0.34 0.34 0.27 0.27 0.33 0.41 0.43 0.54 0.53 0.46 0.51 0.56 0.66 0.66 0.57 0.74 0.78 0.83 0.75 0.64 0.73 0.86 0.83 0.81 0.84 0.89 0.93 1.02
0.49 0.46 0.51 0.51 0.46 0.42 0.40 0.40 0.43 0.52 0.65 0.77 0.65 0.46 0.18 0.48 0.36 0.36 0.36 0.21 0.18 0.27 0.39 0.46 0.48 0.43 0.42 0.41 0.44 0.58 0.48 0.51 0.62 0.73 0.75 0.74 0.72 0.84 0.85 0.71 0.69 0.77 0.82 0.88 0.97
0.49 0.46 0.43 0.49 0.48 0.46 0.43 0.38 0.47 0.66 0.83 0.81 0.65 0.38 0.29 0.39 0.47 0.34 0.36 0.29 0.16 0.20 0.32 0.39 0.37 0.35 0.41 0.38 0.32 0.43 0.41 0.49 0.50 0.66 0.75 0.72 0.72 0.86 0.85 0.80 0.65 0.69 0.80 0.87 0.92
0.49 0.46 0.43 0.42 0.46 0.49 0.46 0.35 0.33 0.37 0.58 0.39 0.39 0.33 0.41 0.52 0.61 0.40 0.37 0.28 0.18 0.18 0.23 0.31 0.29 0.28 0.33 0.37 0.37 0.38 0.46 0.53 0.59 0.68 0.72 0.69 0.73 0.81 0.88 0.85 0.83 0.75 0.80 0.88 0.91
0.49 0.48 0.45 0.41 0.42 0.47 0.48 0.32 0.37 0.42 0.24 0.34 0.38 0.42 0.46 0.52 0.46 0.46 0.37 0.22 0.17 0.13 0.22 0.24 0.24 0.32 0.36 0.40 0.39 0.42 0.41 0.53 0.63 0.70 0.66 0.72 0.72 0.84 0.88 0.70 0.80 0.87 0.90 0.91 1.00
0.50 0.50 0.48 0.41 0.37 0.49 0.40 0.40 0.47 0.47 0.30 0.22 0.23 0.24 0.32 0.45 0.39 0.38 0.30 0.23 0.16 0.13 0.19 0.19 0.22 0.35 0.34 0.37 0.39 0.41 0.42 0.48 0.52 0.65 0.71 0.75 0.73 0.81 0.89 0.99 1.10 1.08 1.00 0.98 0.92
0.49 0.50 0.49 0.45 0.27 0.39 0.32 0.43 0.47 0.49 0.23 0.19 0.21 0.19 0.31 0.39 0.36 0.44 0.37 0.23 0.18 0.14 0.19 0.21 0.25 0.31 0.34 0.33 0.38 0.35 0.41 0.42 0.45 0.55 0.53 0.70 0.49 0.68 0.76 0.83 1.00 1.06 1.07 1.02 0.92
0.47 0.48 0.48 0.48 0.33 0.30 0.32 0.42 0.43 0.49 0.11 0.27 0.37 0.31 0.26 0.33 0.33 0.32 0.36 0.26 0.16 0.14 0.18 0.17 0.20 0.27 0.30 0.32 0.37 0.34 0.38 0.36 0.39 0.48 0.53 0.57 0.53 0.54 0.76 0.70 0.77 0.94 1.03 1.10 1.13
0.45 0.43 0.48 0.39 0.41 0.32 0.42 0.40 0.43 0.25 0.11 0.24 0.32 0.22 0.22 0.32 0.32 0.33 0.29 0.27 0.22 0.17 0.17 0.18 0.23 0.28 0.29 0.35 0.35 0.37 0.34 0.33 0.40 0.44 0.42 0.48 0.50 0.49 0.57 0.57 0.67 0.85 1.00 1.09 1.16
0.43 0.38 0.42 0.44 0.23 0.34 0.39 0.33 0.25 0.17 0.21 0.30 0.31 0.31 0.24 0.25 0.29 0.31 0.26 0.17 0.17 0.15 0.15 0.18 0.20 0.23 0.31 0.29 0.32 0.33 0.30 0.24 0.23 0.30 0.27 0.40 0.45 0.41 0.56 0.63 0.65 0.72 0.85 0.96 1.02
0.43 0.35 0.33 0.35 0.34 0.35 0.32 0.30 0.20 0.19 0.13 0.36 0.36 0.36 0.32 0.33 0.30 0.28 0.27 0.20 0.17 0.19 0.17 0.16 0.16 0.22 0.31 0.30 0.27 0.27 0.28 0.22 0.18 0.21 0.23 0.33 0.26 0.31 0.48 0.57 0.69 0.80 0.83 0.88 0.89
0.42 0.32 0.31 0.30 0.38 0.36 0.28 0.21 0.21 0.22 0.23 0.28 0.32 0.31 0.35 0.36 0.36 0.33 0.25 0.24 0.20 0.20 0.18 0.18 0.17 0.26 0.29 0.30 0.27 0.25 0.24 0.29 0.22 0.29 0.29 0.30 0.35 0.43 0.52 0.59 0.68 0.74 0.83 0.82 0.89
0.36 0.32 0.28 0.41 0.40 0.31 0.22 0.19 0.24 0.30 0.27 0.29 0.27 0.35 0.35 0.35 0.34 0.37 0.31 0.25 0.22 0.21 0.24 0.21 0.17 0.25 0.27 0.29 0.28 0.26 0.26 0.22 0.24 0.21 0.24 0.31 0.34 0.35 0.50 0.56 0.66 0.70 0.73 0.74 0.89
0.34 0.24 0.27 0.53 0.40 0.28 0.16 0.18 0.25 0.28 0.27 0.30 0.28 0.30 0.40 0.36 0.38 0.39 0.35 0.31 0.25 0.24 0.24 0.21 0.20 0.20 0.28 0.26 0.25 0.28 0.26 0.29 0.30 0.30 0.26 0.26 0.30 0.45 0.51 0.58 0.64 0.70 0.71 0.77 0.82
0.32 0.17 0.44 0.55 0.31 0.29 0.20 0.21 0.26 0.25 0.24 0.28 0.32 0.37 0.41 0.42 0.40 0.40 0.36 0.32 0.29 0.25 0.22 0.22 0.22 0.20 0.23 0.30 0.32 0.34 0.28 0.32 0.28 0.27 0.30 0.30 0.30 0.53 0.56 0.61 0.66 0.67 0.71 0.72 0.80
0.24 0.25 0.38 0.46 0.27 0.27 0.32 0.30 0.36 0.33 0.26 0.25 0.27 0.41 0.45 0.43 0.43 0.47 0.44 0.42 0.36 0.28 0.25 0.23 0.22 0.19 0.23 0.29 0.34 0.32 0.35 0.37 0.37 0.36 0.30 0.27 0.31 0.53 0.58 0.57 0.61 0.61 0.63 0.64 0.72
0.32 0.21 0.38 0.44 0.41 0.35 0.36 0.34 0.33 0.43 0.35 0.31 0.34 0.45 0.45 0.46 0.49 0.48 0.45 0.44 0.44 0.32 0.31 0.30 0.22 0.21 0.21 0.26 0.33 0.30 0.34 0.38 0.36 0.30 0.31 0.32 0.34 0.47 0.52 0.55 0.58 0.58 0.63 0.68 0.66
0.44 0.39 0.41 0.36 0.36 0.36 0.37 0.36 0.34 0.38 0.40 0.37 0.36 0.57 0.59 0.46 0.45 0.48 0.56 0.54 0.52 0.46 0.34 0.31 0.22 0.25 0.29 0.33 0.36 0.35 0.33 0.35 0.35 0.35 0.34 0.35 0.35 0.45 0.49 0.50 0.55 0.62 0.68 0.69 0.72
0.47 0.44 0.42 0.34 0.37 0.36 0.35 0.37 0.37 0.41 0.44 0.33 0.39 0.59 0.61 0.53 0.57 0.52 0.58 0.59 0.54 0.54 0.40 0.34 0.25 0.26 0.29 0.35 0.37 0.36 0.36 0.39 0.39 0.40 0.42 0.41 0.37 0.49 0.54 0.59 0.61 0.63 0.65 0.64 0.76
0.55 0.60 0.49 0.28 0.27 0.34 0.38 0.41 0.39 0.47 0.51 0.48 0.48 0.51 0.58 0.60 0.68 0.66 0.66 0.68 0.67 0.57 0.47 0.33 0.30 0.29 0.28 0.34 0.34 0.34 0.38 0.41 0.44 0.47 0.46 0.40 0.41 0.50 0.52 0.57 0.60 0.65 0.70 0.70 0.73

GFSSW_prec_pwat_003.txt.gz
Precipitable_Water
0.48 0.47 0.45 0.43 0.45 0.52 0.54 0.49 0.47 0.48 0.50 0.51 0.52 0.61 0.58 0.50 0.44 0.36 0.23 0.35 0.43 0.49 0.62 0.68 0.78 0.75 0.80 0.99 1.19 1.21 0.88 0.69 0.74 0.75 0.80 0.99 0.93 1.11 1.13 0.81 0.86 1.00 0.90 1.05 1.37
0.50 0.47 0.46 0.44 0.43 0.45 0.52 0.52 0.47 0.45 0.49 0.51 0.50 0.59 0.60 0.53 0.33 0.21 0.22 0.32 0.43 0.48 0.51 0.56 0.55 0.58 0.61 0.79 0.93 0.90 0.80 0.82 0.87 0.85 0.81 0.88 0.95 0.93 0.83 0.76 0.81 0.89 1.02 1.21 1.31
0.52 0.48 0.46 0.45 0.43 0.42 0.47 0.51 0.48 0.45 0.45 0.50 0.51 0.56 0.61 0.53 0.22 0.13 0.32 0.37 0.44 0.52 0.50 0.57 0.54 0.53 0.57 0.67 0.72 0.80 0.70 0.83 0.89 0.91 0.85 0.87 0.99 0.97 0.78 0.69 0.74 0.65 0.84 1.08 1.17
0.56 0.49 0.47 0.45 0.43 0.42 0.42 0.47 0.48 0.46 0.44 0.48 0.51 0.55 0.60 0.43 0.09 0.28 0.41 0.35 0.43 0.48 0.51 0.54 0.53 0.49 0.54 0.56 0.67 0.62 0.74 0.75 0.84 0.89 0.86 0.88 1.01 0.81 0.81 0.76 0.92 0.87 0.95 1.08 1.15
0.56 0.55 0.48 0.45 0.43 0.41 0.40 0.42 0.45 0.45 0.45 0.47 0.52 0.56 0.47 0.25 0.14 0.28 0.31 0.33 0.37 0.39 0.43 0.52 0.47 0.52 0.55 0.61 0.60 0.55 0.70 0.76 0.87 0.86 0.90 0.86 0.70 0.75 0.85 0.94 0.99 1.02 1.03 1.05 1.14
0.51 0.52 0.52 0.49 0.44 0.42 0.39 0.39 0.41 0.44 0.46 0.48 0.53 0.58 0.37 0.16 0.24 0.29 0.34 0.35 0.26 0.30 0.43 0.51 0.46 0.59 0.61 0.55 0.49 0.70 0.80 0.79 0.81 0.85 0.78 0.69 0.78 0.82 0.93 1.01 0.92 0.94 0.95 1.03 1.12
0.52 0.51 0.48 0.50 0.50 0.42 0.40 0.38 0.39 0.42 0.45 0.50 0.55 0.56 0.35 0.19 0.29 0.32 0.40 0.29 0.28 0.27 0.33 0.48 0.52 0.59 0.58 0.49 0.56 0.81 0.75 0.77 0.80 0.83 0.73 0.84 0.72 0.66 0.89 0.97 0.87 0.87 0.91 0.98 1.07
0.51 0.51 0.50 0.46 0.48 0.47 0.42 0.39 0.37 0.43 0.51 0.56 0.64 0.58 0.30 0.35 0.38 0.34 0.35 0.26 0.31 0.32 0.38 0.42 0.48 0.54 0.56 0.52 0.66 0.73 0.76 0.55 0.74 0.75 0.76 0.77 0.58 0.76 0.87 0.84 0.79 0.82 0.86 0.92 1.00
0.49 0.47 0.47 0.46 0.45 0.47 0.46 0.41 0.41 0.53 0.60 0.65 0.57 0.48 0.27 0.42 0.33 0.36 0.34 0.23 0.28 0.35 0.39 0.41 0.45 0.48 0.51 0.43 0.55 0.65 0.54 0.55 0.64 0.79 0.78 0.77 0.70 0.93 1.01 0.93 0.85 0.79 0.82 0.87 0.94
0.52 0.49 0.45 0.43 0.42 0.43 0.47 0.43 0.47 0.66 0.72 0.76 0.64 0.39 0.30 0.29 0.45 0.44 0.41 0.29 0.27 0.28 0.30 0.34 0.38 0.39 0.42 0.40 0.33 0.51 0.54 0.55 0.48 0.72 0.78 0.74 0.73 0.90 1.00 0.87 0.80 0.80 0.79 0.81 0.86
0.52 0.49 0.48 0.45 0.41 0.41 0.45 0.36 0.35 0.36 0.47 0.31 0.32 0.30 0.29 0.45 0.53 0.40 0.42 0.28 0.29 0.23 0.23 0.31 0.30 0.28 0.33 0.42 0.42 0.58 0.55 0.51 0.54 0.70 0.69 0.67 0.71 0.80 0.92 0.79 0.70 0.67 0.70 0.79 0.87
0.50 0.50 0.48 0.46 0.42 0.42 0.43 0.32 0.38 0.38 0.24 0.32 0.29 0.31 0.32 0.45 0.40 0.39 0.45 0.27 0.21 0.19 0.23 0.27 0.25 0.32 0.38 0.43 0.44 0.49 0.40 0.49 0.58 0.68 0.70 0.72 0.70 0.79 0.87 0.74 0.72 0.70 0.69 0.74 0.86
0.49 0.48 0.48 0.47 0.43 0.44 0.30 0.30 0.46 0.41 0.29 0.25 0.27 0.24 0.20 0.39 0.35 0.36 0.40 0.32 0.19 0.19 0.20 0.22 0.27 0.34 0.34 0.38 0.40 0.43 0.38 0.40 0.44 0.63 0.76 0.74 0.70 0.76 0.90 0.89 0.92 0.94 0.95 0.93 0.85
0.47 0.45 0.48 0.47 0.30 0.34 0.26 0.36 0.42 0.43 0.23 0.18 0.29 0.29 0.24 0.29 0.29 0.46 0.44 0.33 0.23 0.17 0.20 0.21 0.30 0.32 0.33 0.34 0.37 0.31 0.38 0.43 0.43 0.51 0.45 0.67 0.45 0.68 0.81 0.83 0.92 0.97 1.01 0.97 0.89
0.44 0.43 0.47 0.48 0.35 0.27 0.25 0.33 0.40 0.44 0.13 0.18 0.31 0.46 0.28 0.20 0.29 0.35 0.43 0.31 0.20 0.16 0.18 0.18 0.24 0.28 0.29 0.31 0.37 0.34 0.42 0.41 0.40 0.40 0.47 0.55 0.49 0.56 0.79 0.71 0.74 0.87 1.01 1.07 1.04
0.45 0.39 0.45 0.38 0.41 0.30 0.35 0.35 0.40 0.25 0.12 0.16 0.29 0.33 0.25 0.22 0.29 0.38 0.35 0.35 0.23 0.18 0.15 0.19 0.27 0.29 0.29 0.32 0.38 0.41 0.39 0.39 0.38 0.37 0.33 0.43 0.48 0.46 0.55 0.62 0.62 0.82 0.96 1.07 1.13
0.45 0.38 0.39 0.41 0.21 0.31 0.32 0.25 0.21 0.17 0.22 0.20 0.29 0.33 0.27 0.22 0.28 0.33 0.31 0.26 0.16 0.14 0.12 0.16 0.21 0.25 0.28 0.29 0.36 0.37 0.35 0.27 0.26 0.29 0.30 0.42 0.46 0.48 0.52 0.60 0.61 0.66 0.81 0.96 1.07
0.46 0.37 0.36 0.32 0.31 0.35 0.26 0.21 0.17 0.20 0.20 0.22 0.32 0.32 0.25 0.28 0.33 0.31 0.28 0.25 0.24 0.16 0.14 0.12 0.12 0.21 0.26 0.27 0.28 0.31 0.33 0.26 0.20 0.22 0.27 0.38 0.39 0.40 0.51 0.63 0.68 0.76 0.80 0.91 0.95
0.45 0.35 0.34 0.31 0.40 0.34 0.21 0.15 0.17 0.22 0.28 0.27 0.24 0.25 0.28 0.35 0.35 0.37 0.31 0.24 0.26 0.19 0.14 0.14 0.13 0.20 0.24 0.29 0.30 0.30 0.28 0.33 0.26 0.29 0.24 0.29 0.34 0.40 0.49 0.49 0.61 0.65 0.75 0.80 0.86
0.39 0.34 0.30 0.52 0.51 0.29 0.18 0.15 0.17 0.27 0.33 0.30 0.22 0.26 0.27 0.34 0.30 0.34 0.33 0.35 0.26 0.27 0.20 0.18 0.14 0.17 0.20 0.28 0.30 0.32 0.34 0.27 0.26 0.19 0.18 0.24 0.28 0.29 0.38 0.42 0.56 0.60 0.65 0.73 0.81
0.37 0.23 0.31 0.55 0.48 0.26 0.14 0.15 0.17 0.22 0.28 0.27 0.25 0.26 0.27 0.31 0.32 0.32 0.32 0.34 0.36 0.34 0.26 0.19 0.18 0.16 0.21 0.20 0.22 0.28 0.26 0.27 0.27 0.25 0.18 0.15 0.19 0.35 0.39 0.44 0.48 0.58 0.63 0.70 0.75
0.38 0.20 0.44 0.51 0.31 0.29 0.18 0.18 0.19 0.19 0.22 0.25 0.25 0.23 0.26 0.31 0.31 0.32 0.31 0.35 0.42 0.39 0.31 0.25 0.19 0.16 0.17 0.23 0.29 0.30 0.25 0.25 0.21 0.20 0.24 0.22 0.22 0.42 0.46 0.49 0.60 0.61 0.67 0.72 0.74
0.31 0.29 0.36 0.44 0.27 0.29 0.32 0.29 0.30 0.29 0.33 0.30 0.29 0.26 0.33 0.34 0.32 0.35 0.41 0.45 0.48 0.44 0.33 0.28 0.19 0.16 0.18 0.22 0.27 0.25 0.27 0.28 0.29 0.28 0.24 0.21 0.25 0.44 0.48 0.53 0.60 0.62 0.68 0.68 0.73
0.35 0.23 0.42 0.40 0.40 0.35 0.32 0.29 0.29 0.39 0.40 0.40 0.39 0.37 0.36 0.36 0.41 0.43 0.45 0.48 0.57 0.42 0.38 0.33 0.21 0.16 0.14 0.18 0.25 0.24 0.27 0.32 0.30 0.26 0.27 0.28 0.30 0.37 0.42 0.47 0.54 0.59 0.68 0.68 0.68
0.42 0.38 0.43 0.36 0.33 0.34 0.33 0.32 0.29 0.30 0.37 0.41 0.39 0.37 0.36 0.36 0.40 0.48 0.56 0.55 0.67 0.55 0.41 0.34 0.25 0.22 0.15 0.22 0.26 0.27 0.29 0.32 0.30 0.30 0.27 0.31 0.33 0.36 0.43 0.47 0.50 0.56 0.62 0.60 0.61
0.42 0.44 0.50 0.39 0.41 0.33 0.35 0.32 0.34 0.34 0.35 0.35 0.40 0.42 0.44 0.43 0.44 0.50 0.57 0.57 0.69 0.69 0.54 0.38 0.27 0.27 0.18 0.22 0.27 0.27 0.31 0.33 0.36 0.35 0.36 0.36 0.34 0.43 0.48 0.53 0.55 0.57 0.57 0.57 0.60
0.46 0.54 0.49 0.39 0.31 0.30 0.30 0.37 0.38 0.40 0.38 0.49 0.53 0.53 0.42 0.52 0.62 0.63 0.72 0.74 0.72 0.72 0.60 0.44 0.32 0.27 0.21 0.23 0.27 0.29 0.35 0.37 0.37 0.40 0.38 0.34 0.36 0.44 0.47 0.51 0.53 0.56 0.58 0.58 0.65

GFSSW_prec_pwat_006.txt.gz
Precipitable_Water
0.54 0.51 0.48 0.45 0.45 0.44 0.45 0.50 0.52 0.47 0.47 0.49 0.51 0.52 0.56 0.59 0.54 0.38 0.20 0.38 0.44 0.56 0.83 0.83 0.93 0.93 1.15 0.95 1.24 1.24 0.84 0.68 0.71 0.69 0.75 0.99 0.93 1.05 1.08 0.88 0.91 0.98 0.92 1.10 1.36
0.58 0.54 0.51 0.48 0.45 0.43 0.43 0.44 0.49 0.49 0.46 0.46 0.49 0.52 0.54 0.59 0.42 0.25 0.24 0.33 0.45 0.51 0.53 0.56 0.58 0.67 0.70 0.72 0.91 0.95 0.76 0.71 0.84 0.82 0.78 0.92 0.98 0.87 0.86 0.76 0.77 0.87 1.00 1.18 1.28
0.57 0.57 0.51 0.49 0.48 0.45 0.42 0.41 0.43 0.48 0.46 0.45 0.46 0.51 0.55 0.56 0.27 0.15 0.34 0.37 0.45 0.51 0.49 0.52 0.53 0.55 0.54 0.60 0.74 0.84 0.71 0.75 0.76 0.85 0.89 0.88 1.00 0.98 0.79 0.65 0.72 0.71 0.81 1.02 1.13
0.52 0.54 0.53 0.52 0.47 0.46 0.43 0.41 0.40 0.43 0.46 0.46 0.46 0.49 0.56 0.47 0.12 0.27 0.45 0.42 0.48 0.53 0.46 0.51 0.53 0.45 0.46 0.50 0.64 0.67 0.73 0.70 0.75 0.86 0.89 0.80 0.96 0.87 0.73 0.73 0.89 0.91 0.92 1.00 1.00
0.50 0.49 0.50 0.51 0.51 0.47 0.44 0.41 0.39 0.41 0.45 0.47 0.49 0.48 0.44 0.27 0.19 0.31 0.32 0.43 0.48 0.47 0.40 0.46 0.49 0.45 0.46 0.53 0.59 0.59 0.61 0.65 0.75 0.78 0.87 0.90 0.78 0.83 0.76 0.94 0.92 0.90 0.94 0.96 1.01
0.54 0.50 0.49 0.47 0.48 0.50 0.46 0.42 0.40 0.39 0.42 0.48 0.51 0.52 0.33 0.16 0.32 0.29 0.40 0.46 0.35 0.35 0.40 0.45 0.46 0.50 0.50 0.52 0.52 0.56 0.63 0.73 0.77 0.75 0.82 0.76 0.78 0.80 0.86 1.01 0.88 0.83 0.84 0.92 0.99
0.52 0.53 0.51 0.48 0.46 0.45 0.48 0.45 0.41 0.40 0.42 0.49 0.53 0.52 0.31 0.18 0.37 0.35 0.36 0.39 0.35 0.28 0.37 0.46 0.53 0.51 0.54 0.50 0.53 0.69 0.66 0.72 0.75 0.77 0.78 0.90 0.73 0.65 0.89 0.97 0.85 0.82 0.87 0.94 1.06
0.51 0.49 0.48 0.48 0.46 0.43 0.42 0.46 0.46 0.44 0.53 0.56 0.60 0.50 0.25 0.40 0.43 0.34 0.41 0.32 0.30 0.32 0.36 0.45 0.49 0.48 0.50 0.55 0.60 0.67 0.69 0.57 0.73 0.76 0.83 0.87 0.59 0.83 0.98 0.91 0.84 0.84 0.87 0.91 1.00
0.54 0.51 0.48 0.47 0.45 0.43 0.40 0.40 0.47 0.58 0.61 0.62 0.52 0.43 0.21 0.48 0.32 0.40 0.37 0.30 0.26 0.30 0.36 0.41 0.41 0.41 0.48 0.44 0.50 0.63 0.47 0.57 0.64 0.78 0.79 0.83 0.68 0.91 1.02 0.92 0.86 0.79 0.82 0.86 0.93
0.51 0.53 0.51 0.48 0.46 0.43 0.39 0.39 0.50 0.67 0.73 0.75 0.66 0.39 0.33 0.26 0.40 0.38 0.40 0.38 0.28 0.24 0.29 0.32 0.34 0.35 0.42 0.40 0.35 0.45 0.52 0.59 0.59 0.71 0.75 0.71 0.74 0.90 0.96 0.88 0.84 0.76 0.76 0.81 0.83
0.47 0.48 0.50 0.47 0.46 0.43 0.40 0.31 0.30 0.33 0.42 0.30 0.29 0.33 0.28 0.31 0.45 0.35 0.40 0.34 0.29 0.20 0.18 0.26 0.25 0.28 0.37 0.41 0.44 0.51 0.55 0.53 0.65 0.79 0.70 0.69 0.74 0.85 0.94 0.89 0.79 0.74 0.70 0.70 0.73
0.46 0.45 0.47 0.46 0.45 0.44 0.42 0.26 0.32 0.35 0.22 0.30 0.30 0.29 0.31 0.31 0.26 0.35 0.42 0.31 0.25 0.19 0.17 0.20 0.21 0.34 0.43 0.44 0.41 0.47 0.51 0.54 0.67 0.74 0.78 0.76 0.73 0.87 0.95 0.86 0.80 0.74 0.68 0.68 0.73
0.46 0.44 0.45 0.42 0.41 0.45 0.30 0.27 0.40 0.34 0.23 0.21 0.27 0.28 0.31 0.31 0.19 0.28 0.39 0.32 0.25 0.21 0.15 0.17 0.25 0.35 0.39 0.41 0.40 0.42 0.42 0.50 0.54 0.67 0.77 0.76 0.68 0.76 0.94 0.98 0.91 0.89 0.89 0.87 0.81
0.45 0.44 0.44 0.40 0.28 0.32 0.26 0.36 0.35 0.38 0.21 0.18 0.21 0.33 0.38 0.32 0.20 0.30 0.42 0.34 0.27 0.25 0.22 0.19 0.27 0.33 0.34 0.37 0.41 0.36 0.44 0.50 0.46 0.46 0.40 0.68 0.44 0.66 0.79 0.83 0.85 0.82 0.87 0.88 0.91
0.45 0.42 0.45 0.43 0.31 0.24 0.25 0.33 0.35 0.41 0.12 0.20 0.24 0.43 0.41 0.27 0.20 0.22 0.42 0.36 0.26 0.27 0.24 0.19 0.23 0.28 0.31 0.32 0.40 0.36 0.45 0.46 0.45 0.42 0.45 0.53 0.47 0.48 0.74 0.71 0.74 0.77 0.88 0.89 0.96
0.45 0.40 0.46 0.39 0.36 0.27 0.35 0.35 0.36 0.23 0.13 0.17 0.27 0.27 0.28 0.30 0.21 0.31 0.34 0.41 0.35 0.28 0.28 0.22 0.27 0.30 0.30 0.37 0.40 0.41 0.41 0.42 0.44 0.42 0.32 0.37 0.41 0.36 0.51 0.58 0.65 0.81 0.88 0.95 0.91
0.46 0.40 0.41 0.44 0.23 0.32 0.31 0.25 0.19 0.15 0.23 0.18 0.23 0.26 0.25 0.27 0.20 0.26 0.31 0.33 0.26 0.18 0.19 0.22 0.20 0.29 0.34 0.32 0.39 0.37 0.37 0.29 0.26 0.30 0.28 0.38 0.40 0.37 0.48 0.61 0.61 0.69 0.79 0.92 1.03
0.48 0.41 0.39 0.37 0.39 0.38 0.25 0.20 0.16 0.20 0.19 0.23 0.25 0.25 0.22 0.28 0.23 0.21 0.33 0.32 0.31 0.23 0.15 0.14 0.14 0.22 0.31 0.31 0.32 0.32 0.34 0.26 0.22 0.24 0.28 0.41 0.30 0.34 0.46 0.60 0.74 0.78 0.81 0.89 0.93
0.52 0.42 0.37 0.39 0.49 0.40 0.20 0.15 0.17 0.22 0.26 0.24 0.25 0.20 0.22 0.26 0.28 0.27 0.31 0.32 0.34 0.27 0.13 0.12 0.12 0.20 0.28 0.32 0.33 0.30 0.28 0.37 0.32 0.31 0.26 0.31 0.34 0.41 0.48 0.49 0.58 0.66 0.75 0.77 0.85
0.49 0.42 0.35 0.56 0.61 0.37 0.20 0.16 0.18 0.24 0.30 0.26 0.21 0.24 0.18 0.25 0.28 0.27 0.28 0.34 0.33 0.36 0.30 0.16 0.11 0.15 0.20 0.30 0.33 0.31 0.33 0.29 0.31 0.23 0.21 0.25 0.26 0.26 0.34 0.37 0.43 0.54 0.60 0.69 0.80
0.47 0.33 0.40 0.62 0.52 0.33 0.19 0.18 0.18 0.21 0.25 0.21 0.22 0.25 0.24 0.24 0.26 0.27 0.25 0.31 0.32 0.33 0.36 0.31 0.19 0.15 0.17 0.17 0.21 0.26 0.26 0.29 0.31 0.30 0.23 0.20 0.23 0.33 0.33 0.37 0.40 0.46 0.55 0.61 0.71
0.45 0.28 0.52 0.56 0.30 0.31 0.24 0.23 0.23 0.21 0.22 0.21 0.24 0.24 0.22 0.23 0.22 0.25 0.25 0.27 0.36 0.37 0.33 0.34 0.27 0.17 0.15 0.20 0.21 0.24 0.24 0.26 0.25 0.24 0.29 0.25 0.22 0.34 0.32 0.36 0.43 0.49 0.55 0.63 0.70
0.38 0.36 0.46 0.47 0.25 0.27 0.33 0.31 0.29 0.26 0.23 0.23 0.22 0.23 0.26 0.25 0.23 0.27 0.29 0.31 0.37 0.41 0.40 0.43 0.30 0.20 0.16 0.20 0.22 0.20 0.23 0.26 0.29 0.29 0.26 0.23 0.22 0.32 0.36 0.42 0.51 0.54 0.59 0.64 0.71
0.39 0.26 0.41 0.48 0.41 0.34 0.31 0.30 0.30 0.37 0.36 0.38 0.34 0.35 0.31 0.29 0.29 0.26 0.31 0.41 0.50 0.58 0.65 0.55 0.39 0.26 0.17 0.14 0.19 0.18 0.21 0.27 0.26 0.24 0.24 0.23 0.23 0.26 0.34 0.39 0.48 0.51 0.58 0.62 0.67
0.43 0.35 0.49 0.36 0.43 0.41 0.37 0.34 0.31 0.32 0.38 0.39 0.34 0.33 0.31 0.27 0.27 0.25 0.31 0.37 0.52 0.66 0.68 0.45 0.31 0.29 0.24 0.22 0.20 0.20 0.19 0.23 0.23 0.26 0.23 0.21 0.25 0.29 0.36 0.41 0.44 0.51 0.56 0.60 0.62
0.40 0.42 0.48 0.41 0.44 0.42 0.37 0.31 0.34 0.37 0.36 0.33 0.34 0.35 0.40 0.32 0.32 0.26 0.33 0.37 0.46 0.61 0.67 0.59 0.29 0.28 0.24 0.24 0.20 0.21 0.24 0.24 0.25 0.29 0.27 0.29 0.30 0.37 0.39 0.49 0.46 0.50 0.55 0.57 0.59
0.48 0.52 0.44 0.34 0.34 0.33 0.32 0.35 0.35 0.42 0.40 0.40 0.40 0.40 0.41 0.43 0.52 0.51 0.50 0.53 0.59 0.56 0.63 0.63 0.45 0.28 0.22 0.26 0.22 0.18 0.21 0.24 0.27 0.30 0.30 0.29 0.33 0.39 0.42 0.45 0.46 0.50 0.56 0.56 0.56

GFSSW_prec_pwat_009.txt.gz
Precipitable_Water
0.60 0.57 0.53 0.47 0.44 0.45 0.46 0.45 0.44 0.47 0.49 0.45 0.45 0.47 0.50 0.52 0.50 0.43 0.26 0.38 0.43 0.77 0.91 0.96 0.96 1.06 1.15 1.05 1.15 1.16 0.77 0.65 0.68 0.72 0.74 0.90 0.76 0.96 1.03 0.86 0.95 1.04 1.02 1.13 1.34
0.54 0.56 0.56 0.53 0.46 0.43 0.42 0.43 0.43 0.43 0.48 0.48 0.46 0.46 0.49 0.54 0.41 0.28 0.33 0.36 0.49 0.69 0.65 0.68 0.70 0.84 0.73 0.72 0.86 0.90 0.74 0.69 0.76 0.81 0.78 0.87 0.85 0.82 0.81 0.79 0.79 0.89 1.10 1.22 1.29
0.53 0.51 0.52 0.53 0.52 0.46 0.42 0.41 0.41 0.41 0.43 0.48 0.48 0.47 0.47 0.53 0.28 0.21 0.45 0.39 0.50 0.63 0.57 0.60 0.62 0.59 0.58 0.67 0.71 0.81 0.68 0.77 0.76 0.79 0.88 0.85 0.91 0.90 0.74 0.64 0.74 0.75 0.89 1.07 1.14
0.54 0.52 0.50 0.49 0.50 0.49 0.47 0.42 0.40 0.40 0.41 0.43 0.49 0.49 0.48 0.41 0.14 0.26 0.49 0.41 0.40 0.55 0.46 0.48 0.49 0.48 0.51 0.53 0.60 0.61 0.72 0.74 0.75 0.79 0.83 0.80 0.90 0.81 0.75 0.70 0.89 0.95 1.02 1.05 1.05
0.53 0.53 0.52 0.51 0.48 0.47 0.48 0.48 0.43 0.40 0.41 0.41 0.46 0.51 0.41 0.22 0.18 0.34 0.40 0.49 0.50 0.45 0.38 0.43 0.45 0.46 0.47 0.51 0.54 0.56 0.58 0.64 0.68 0.76 0.81 0.84 0.80 0.84 0.74 0.86 0.95 0.99 1.02 0.96 1.01
0.53 0.51 0.50 0.51 0.51 0.48 0.46 0.46 0.48 0.44 0.41 0.44 0.46 0.50 0.32 0.14 0.29 0.38 0.43 0.48 0.46 0.37 0.38 0.42 0.45 0.49 0.48 0.50 0.53 0.57 0.56 0.62 0.63 0.75 0.80 0.76 0.78 0.82 0.81 0.97 0.91 0.89 0.90 0.95 1.00
0.55 0.54 0.51 0.50 0.48 0.45 0.44 0.44 0.45 0.48 0.47 0.50 0.53 0.47 0.29 0.17 0.29 0.36 0.38 0.38 0.44 0.36 0.31 0.41 0.46 0.46 0.50 0.48 0.56 0.63 0.56 0.68 0.71 0.74 0.73 0.85 0.73 0.71 0.89 0.95 0.83 0.78 0.85 0.92 0.98
0.50 0.52 0.53 0.51 0.49 0.45 0.41 0.41 0.42 0.45 0.55 0.61 0.61 0.52 0.23 0.34 0.41 0.44 0.41 0.34 0.41 0.34 0.33 0.38 0.48 0.45 0.46 0.54 0.58 0.57 0.61 0.51 0.70 0.75 0.80 0.76 0.56 0.84 1.01 0.91 0.78 0.76 0.79 0.84 0.93
0.47 0.47 0.47 0.48 0.48 0.46 0.42 0.41 0.44 0.52 0.59 0.65 0.56 0.47 0.25 0.46 0.37 0.45 0.42 0.27 0.32 0.34 0.34 0.37 0.40 0.42 0.45 0.44 0.46 0.54 0.44 0.54 0.56 0.79 0.77 0.73 0.63 0.86 1.03 0.97 0.87 0.79 0.73 0.79 0.87
0.46 0.45 0.45 0.45 0.45 0.44 0.41 0.45 0.53 0.61 0.68 0.74 0.67 0.39 0.38 0.28 0.39 0.40 0.44 0.33 0.29 0.28 0.24 0.31 0.32 0.32 0.39 0.42 0.30 0.40 0.46 0.54 0.51 0.70 0.79 0.73 0.71 0.88 0.99 0.96 0.85 0.86 0.78 0.77 0.81
0.45 0.45 0.44 0.41 0.41 0.42 0.41 0.38 0.30 0.28 0.37 0.28 0.29 0.29 0.31 0.38 0.39 0.38 0.41 0.35 0.29 0.24 0.17 0.23 0.23 0.24 0.33 0.42 0.44 0.45 0.51 0.51 0.63 0.74 0.71 0.72 0.73 0.84 0.98 0.99 0.91 0.82 0.79 0.75 0.75
0.45 0.43 0.43 0.39 0.38 0.43 0.35 0.24 0.30 0.30 0.19 0.24 0.25 0.26 0.30 0.34 0.25 0.28 0.40 0.30 0.25 0.17 0.17 0.17 0.16 0.29 0.36 0.42 0.42 0.46 0.50 0.53 0.66 0.78 0.74 0.74 0.70 0.83 0.94 0.95 0.95 0.88 0.83 0.75 0.79
0.47 0.44 0.43 0.39 0.37 0.40 0.28 0.30 0.40 0.33 0.20 0.20 0.26 0.25 0.31 0.33 0.23 0.20 0.31 0.30 0.26 0.20 0.17 0.13 0.17 0.28 0.33 0.37 0.38 0.43 0.42 0.50 0.53 0.71 0.78 0.72 0.63 0.71 0.87 0.99 1.03 0.98 0.90 0.91 0.85
0.49 0.45 0.45 0.40 0.26 0.28 0.26 0.37 0.35 0.35 0.19 0.18 0.22 0.29 0.38 0.37 0.23 0.30 0.30 0.31 0.26 0.21 0.20 0.16 0.17 0.24 0.29 0.34 0.40 0.33 0.42 0.48 0.56 0.59 0.50 0.71 0.42 0.61 0.75 0.82 0.89 0.88 0.89 0.83 0.88
0.54 0.47 0.46 0.46 0.32 0.24 0.24 0.32 0.34 0.37 0.11 0.21 0.24 0.41 0.36 0.30 0.25 0.23 0.31 0.34 0.26 0.22 0.22 0.17 0.14 0.22 0.25 0.31 0.42 0.38 0.46 0.44 0.51 0.57 0.51 0.50 0.46 0.49 0.68 0.66 0.75 0.82 0.84 0.86 0.82
0.54 0.49 0.52 0.44 0.40 0.31 0.34 0.32 0.37 0.21 0.12 0.19 0.29 0.27 0.26 0.30 0.27 0.27 0.24 0.35 0.38 0.27 0.24 0.22 0.20 0.20 0.27 0.36 0.42 0.47 0.45 0.44 0.50 0.53 0.37 0.40 0.40 0.38 0.45 0.48 0.57 0.80 0.86 0.84 0.89
0.57 0.53 0.48 0.51 0.29 0.39 0.33 0.25 0.20 0.16 0.23 0.19 0.23 0.28 0.24 0.22 0.26 0.26 0.20 0.26 0.26 0.23 0.21 0.23 0.19 0.22 0.24 0.32 0.41 0.43 0.40 0.32 0.31 0.35 0.30 0.40 0.39 0.37 0.46 0.50 0.56 0.67 0.81 0.87 0.93
0.58 0.54 0.51 0.49 0.48 0.46 0.30 0.21 0.17 0.21 0.20 0.26 0.28 0.28 0.22 0.24 0.27 0.24 0.22 0.22 0.33 0.31 0.24 0.18 0.15 0.20 0.25 0.27 0.34 0.36 0.36 0.31 0.25 0.26 0.30 0.41 0.30 0.35 0.48 0.52 0.58 0.69 0.81 0.92 0.93
0.61 0.54 0.50 0.50 0.58 0.48 0.26 0.19 0.19 0.22 0.29 0.26 0.26 0.21 0.20 0.24 0.25 0.26 0.23 0.21 0.29 0.34 0.23 0.19 0.16 0.22 0.25 0.32 0.35 0.36 0.33 0.40 0.34 0.34 0.28 0.31 0.36 0.41 0.45 0.44 0.49 0.58 0.71 0.76 0.86
0.58 0.52 0.45 0.65 0.71 0.47 0.25 0.21 0.21 0.27 0.30 0.28 0.22 0.24 0.20 0.23 0.23 0.23 0.23 0.30 0.32 0.39 0.38 0.24 0.14 0.17 0.22 0.29 0.35 0.33 0.39 0.32 0.33 0.25 0.25 0.28 0.27 0.27 0.34 0.37 0.42 0.50 0.56 0.67 0.79
0.56 0.42 0.52 0.73 0.62 0.41 0.27 0.24 0.23 0.25 0.26 0.24 0.25 0.25 0.26 0.23 0.24 0.24 0.25 0.28 0.32 0.35 0.40 0.35 0.22 0.14 0.19 0.21 0.25 0.31 0.30 0.35 0.35 0.31 0.24 0.24 0.25 0.36 0.34 0.36 0.37 0.42 0.47 0.58 0.71
0.52 0.36 0.56 0.67 0.40 0.37 0.31 0.31 0.29 0.25 0.24 0.22 0.25 0.25 0.23 0.24 0.22 0.22 0.23 0.29 0.34 0.33 0.31 0.37 0.32 0.23 0.18 0.21 0.23 0.30 0.31 0.32 0.29 0.25 0.27 0.27 0.27 0.36 0.37 0.38 0.39 0.36 0.42 0.58 0.68
0.42 0.40 0.50 0.55 0.34 0.34 0.37 0.36 0.35 0.31 0.29 0.26 0.22 0.24 0.24 0.22 0.20 0.21 0.23 0.32 0.36 0.35 0.33 0.36 0.30 0.25 0.22 0.24 0.23 0.20 0.24 0.31 0.33 0.33 0.27 0.23 0.24 0.37 0.39 0.38 0.39 0.38 0.46 0.58 0.67
0.41 0.30 0.40 0.51 0.47 0.42 0.40 0.36 0.33 0.41 0.35 0.32 0.30 0.30 0.29 0.25 0.29 0.26 0.26 0.30 0.41 0.35 0.44 0.52 0.41 0.34 0.24 0.21 0.21 0.18 0.20 0.23 0.27 0.25 0.26 0.26 0.26 0.30 0.35 0.36 0.37 0.39 0.47 0.59 0.69
0.44 0.34 0.48 0.36 0.45 0.49 0.48 0.41 0.36 0.33 0.41 0.43 0.36 0.33 0.30 0.26 0.26 0.26 0.28 0.29 0.41 0.45 0.62 0.56 0.38 0.41 0.36 0.32 0.29 0.22 0.18 0.19 0.19 0.21 0.22 0.24 0.24 0.26 0.33 0.35 0.37 0.40 0.53 0.56 0.68
0.43 0.44 0.46 0.39 0.40 0.38 0.40 0.41 0.37 0.41 0.40 0.35 0.37 0.38 0.37 0.32 0.32 0.30 0.32 0.29 0.33 0.49 0.52 0.58 0.44 0.45 0.35 0.38 0.37 0.25 0.20 0.20 0.21 0.21 0.24 0.23 0.26 0.30 0.35 0.40 0.41 0.45 0.55 0.54 0.60
0.57 0.52 0.44 0.37 0.34 0.33 0.34 0.35 0.37 0.44 0.41 0.44 0.42 0.39 0.36 0.39 0.46 0.48 0.47 0.47 0.46 0.48 0.54 0.57 0.54 0.51 0.36 0.34 0.31 0.26 0.24 0.21 0.22 0.24 0.23 0.20 0.25 0.30 0.29 0.35 0.40 0.46 0.53 0.57 0.58

GFSSW_prec_pwat_012.txt.gz
Precipitable_Water
0.53 0.53 0.55 0.55 0.51 0.46 0.45 0.43 0.40 0.39 0.38 0.45 0.46 0.45 0.44 0.46 0.46 0.47 0.29 0.42 0.46 0.74 1.01 0.95 0.95 1.08 1.13 1.11 1.08 1.10 0.80 0.65 0.69 0.76 0.74 0.79 0.68 0.82 0.93 0.88 0.99 1.09 1.11 1.22 1.35
0.54 0.52 0.50 0.51 0.52 0.52 0.46 0.44 0.43 0.40 0.38 0.39 0.46 0.45 0.44 0.46 0.35 0.28 0.36 0.38 0.54 0.72 0.74 0.76 0.79 0.97 0.91 0.86 0.90 0.87 0.83 0.73 0.77 0.80 0.86 0.85 0.78 0.74 0.74 0.80 0.87 0.98 1.15 1.26 1.30
0.54 0.54 0.52 0.49 0.48 0.48 0.49 0.49 0.45 0.42 0.41 0.38 0.41 0.48 0.45 0.48 0.26 0.25 0.41 0.40 0.48 0.68 0.67 0.74 0.77 0.84 0.69 0.66 0.70 0.73 0.74 0.82 0.81 0.79 0.92 0.85 0.87 0.82 0.69 0.68 0.80 0.84 1.01 1.13 1.20
0.51 0.51 0.52 0.51 0.50 0.47 0.47 0.46 0.48 0.46 0.43 0.42 0.40 0.43 0.47 0.41 0.14 0.28 0.46 0.43 0.49 0.59 0.59 0.60 0.63 0.59 0.53 0.55 0.63 0.62 0.65 0.67 0.72 0.78 0.86 0.83 0.90 0.75 0.70 0.73 0.88 0.96 1.04 1.08 1.11
0.53 0.50 0.49 0.49 0.50 0.49 0.48 0.47 0.45 0.47 0.46 0.44 0.45 0.44 0.37 0.27 0.20 0.35 0.40 0.48 0.50 0.53 0.41 0.49 0.48 0.52 0.47 0.53 0.57 0.56 0.58 0.59 0.62 0.72 0.82 0.91 0.83 0.86 0.72 0.80 0.93 0.99 1.02 1.01 1.07
0.53 0.53 0.50 0.48 0.46 0.45 0.46 0.47 0.46 0.44 0.45 0.49 0.48 0.49 0.31 0.15 0.28 0.36 0.48 0.51 0.47 0.41 0.35 0.42 0.47 0.49 0.46 0.49 0.53 0.57 0.56 0.57 0.58 0.67 0.78 0.75 0.81 0.84 0.75 0.86 0.89 0.93 0.95 0.99 1.04
0.51 0.49 0.50 0.51 0.48 0.45 0.43 0.43 0.43 0.42 0.44 0.48 0.58 0.47 0.31 0.19 0.29 0.32 0.36 0.40 0.45 0.39 0.31 0.39 0.46 0.46 0.48 0.49 0.56 0.59 0.55 0.65 0.62 0.68 0.71 0.84 0.74 0.70 0.88 0.90 0.85 0.86 0.92 0.96 1.00
0.47 0.45 0.44 0.45 0.47 0.48 0.45 0.43 0.43 0.44 0.47 0.53 0.61 0.53 0.28 0.40 0.38 0.33 0.40 0.38 0.39 0.46 0.37 0.41 0.43 0.45 0.44 0.56 0.55 0.54 0.56 0.53 0.62 0.71 0.76 0.80 0.61 0.79 0.93 0.84 0.81 0.82 0.84 0.88 0.95
0.48 0.45 0.42 0.41 0.41 0.42 0.44 0.44 0.49 0.56 0.56 0.57 0.53 0.47 0.28 0.50 0.37 0.43 0.43 0.30 0.35 0.37 0.33 0.35 0.39 0.41 0.45 0.46 0.46 0.52 0.45 0.50 0.56 0.76 0.77 0.76 0.68 0.87 0.98 0.90 0.82 0.79 0.79 0.83 0.91
0.51 0.47 0.42 0.40 0.38 0.38 0.40 0.43 0.59 0.65 0.66 0.67 0.62 0.39 0.37 0.30 0.46 0.41 0.46 0.32 0.32 0.32 0.25 0.26 0.31 0.34 0.38 0.38 0.33 0.42 0.44 0.50 0.50 0.66 0.75 0.70 0.75 0.86 0.99 0.96 0.86 0.82 0.82 0.80 0.82
0.49 0.45 0.41 0.40 0.37 0.37 0.38 0.34 0.38 0.40 0.48 0.30 0.33 0.29 0.33 0.38 0.44 0.41 0.43 0.28 0.29 0.26 0.15 0.19 0.21 0.24 0.33 0.38 0.43 0.47 0.49 0.51 0.57 0.76 0.73 0.70 0.70 0.79 0.94 0.99 0.94 0.88 0.83 0.79 0.76
0.52 0.49 0.43 0.39 0.36 0.40 0.36 0.24 0.28 0.30 0.20 0.25 0.25 0.23 0.29 0.34 0.25 0.30 0.42 0.27 0.23 0.19 0.18 0.16 0.15 0.25 0.34 0.39 0.42 0.44 0.45 0.48 0.59 0.77 0.71 0.70 0.70 0.78 0.88 0.93 0.97 0.99 0.86 0.85 0.80
0.54 0.52 0.47 0.40 0.37 0.39 0.30 0.33 0.35 0.32 0.21 0.20 0.24 0.22 0.24 0.26 0.23 0.23 0.35 0.31 0.23 0.19 0.18 0.15 0.14 0.24 0.29 0.30 0.38 0.43 0.41 0.48 0.60 0.68 0.72 0.70 0.65 0.69 0.80 0.92 0.99 1.05 1.02 0.94 0.90
0.61 0.57 0.52 0.44 0.34 0.32 0.33 0.39 0.37 0.35 0.18 0.19 0.22 0.27 0.34 0.35 0.26 0.32 0.30 0.30 0.26 0.19 0.20 0.15 0.16 0.17 0.24 0.27 0.37 0.36 0.43 0.50 0.59 0.61 0.51 0.67 0.47 0.57 0.69 0.76 0.86 0.95 1.00 0.93 0.98
0.67 0.58 0.58 0.53 0.37 0.31 0.34 0.34 0.36 0.37 0.14 0.25 0.26 0.42 0.37 0.30 0.30 0.28 0.31 0.31 0.24 0.22 0.23 0.17 0.14 0.15 0.16 0.22 0.32 0.35 0.46 0.48 0.52 0.56 0.57 0.64 0.55 0.54 0.66 0.65 0.73 0.84 0.94 0.96 0.92
0.72 0.63 0.61 0.52 0.49 0.39 0.40 0.37 0.41 0.25 0.17 0.23 0.29 0.26 0.26 0.29 0.28 0.30 0.26 0.32 0.34 0.27 0.27 0.22 0.22 0.16 0.15 0.20 0.33 0.41 0.44 0.47 0.49 0.48 0.41 0.53 0.54 0.44 0.51 0.57 0.62 0.78 0.88 0.99 0.94
0.72 0.64 0.57 0.59 0.40 0.45 0.41 0.31 0.24 0.19 0.29 0.23 0.24 0.28 0.24 0.23 0.26 0.27 0.23 0.22 0.24 0.22 0.21 0.21 0.20 0.17 0.15 0.16 0.29 0.39 0.41 0.36 0.34 0.35 0.35 0.51 0.48 0.44 0.51 0.57 0.56 0.62 0.78 0.94 0.99
0.71 0.64 0.62 0.57 0.58 0.51 0.37 0.25 0.20 0.24 0.25 0.30 0.30 0.30 0.25 0.25 0.25 0.26 0.23 0.20 0.26 0.27 0.24 0.20 0.15 0.20 0.18 0.15 0.25 0.32 0.37 0.33 0.28 0.30 0.35 0.46 0.39 0.38 0.56 0.58 0.55 0.62 0.69 0.91 0.94
0.72 0.61 0.58 0.60 0.62 0.55 0.33 0.22 0.23 0.26 0.30 0.27 0.29 0.28 0.28 0.28 0.25 0.27 0.27 0.23 0.24 0.29 0.23 0.24 0.21 0.26 0.20 0.19 0.24 0.30 0.33 0.42 0.38 0.40 0.34 0.35 0.43 0.44 0.52 0.54 0.54 0.53 0.63 0.77 0.86
0.64 0.60 0.56 0.66 0.74 0.55 0.32 0.25 0.25 0.26 0.31 0.35 0.26 0.27 0.25 0.27 0.26 0.25 0.26 0.28 0.27 0.33 0.37 0.32 0.24 0.27 0.25 0.22 0.21 0.30 0.39 0.35 0.36 0.31 0.30 0.32 0.35 0.37 0.43 0.42 0.46 0.54 0.55 0.66 0.80
0.57 0.47 0.64 0.77 0.73 0.51 0.32 0.29 0.29 0.28 0.30 0.31 0.29 0.29 0.30 0.28 0.29 0.26 0.27 0.31 0.32 0.34 0.38 0.38 0.31 0.23 0.26 0.18 0.16 0.21 0.30 0.36 0.39 0.35 0.30 0.31 0.31 0.42 0.41 0.46 0.46 0.50 0.55 0.60 0.71
0.48 0.35 0.60 0.68 0.48 0.44 0.38 0.38 0.36 0.31 0.29 0.28 0.30 0.29 0.30 0.33 0.30 0.28 0.28 0.29 0.36 0.39 0.37 0.42 0.37 0.25 0.18 0.19 0.20 0.24 0.26 0.35 0.32 0.31 0.35 0.32 0.30 0.44 0.46 0.45 0.43 0.46 0.50 0.55 0.62
0.41 0.35 0.45 0.51 0.35 0.36 0.43 0.41 0.42 0.37 0.31 0.27 0.26 0.28 0.29 0.28 0.27 0.29 0.29 0.31 0.31 0.34 0.34 0.41 0.35 0.30 0.26 0.22 0.21 0.18 0.23 0.29 0.35 0.37 0.33 0.32 0.32 0.44 0.44 0.42 0.45 0.47 0.47 0.50 0.57
0.45 0.30 0.33 0.47 0.40 0.41 0.43 0.49 0.44 0.43 0.38 0.33 0.29 0.29 0.25 0.26 0.29 0.28 0.28 0.30 0.33 0.33 0.41 0.41 0.34 0.30 0.24 0.25 0.26 0.22 0.20 0.23 0.28 0.28 0.31 0.32 0.39 0.41 0.37 0.39 0.39 0.41 0.44 0.49 0.62
0.47 0.37 0.48 0.28 0.41 0.48 0.50 0.50 0.44 0.42 0.45 0.43 0.36 0.37 0.31 0.28 0.28 0.27 0.31 0.33 0.39 0.40 0.45 0.37 0.39 0.43 0.36 0.34 0.34 0.29 0.26 0.22 0.21 0.24 0.27 0.32 0.33 0.41 0.41 0.39 0.39 0.42 0.44 0.53 0.62
0.40 0.40 0.48 0.42 0.39 0.33 0.32 0.33 0.42 0.42 0.46 0.45 0.43 0.40 0.36 0.35 0.35 0.32 0.33 0.32 0.31 0.34 0.37 0.47 0.45 0.48 0.42 0.42 0.40 0.36 0.36 0.30 0.23 0.20 0.24 0.27 0.29 0.38 0.42 0.42 0.40 0.39 0.43 0.47 0.58
0.53 0.53 0.43 0.34 0.34 0.34 0.33 0.36 0.38 0.48 0.49 0.47 0.52 0.51 0.49 0.48 0.51 0.52 0.51 0.48 0.47 0.38 0.42 0.45 0.47 0.50 0.38 0.42 0.43 0.36 0.36 0.37 0.34 0.25 0.18 0.18 0.23 0.29 0.31 0.34 0.36 0.36 0.41 0.48 0.56

GFSSW_prec_pwat_015.txt.gz
Precipitable_Water
0.53 0.52 0.50 0.49 0.50 0.50 0.46 0.43 0.42 0.41 0.40 0.39 0.41 0.47 0.44 0.43 0.42 0.47 0.35 0.46 0.58 0.65 0.84 0.94 1.03 1.01 1.09 1.01 1.01 1.14 0.97 0.73 0.69 0.80 0.74 0.68 0.73 0.85 1.04 0.89 1.02 1.21 1.22 1.34 1.48
0.53 0.52 0.51 0.49 0.48 0.46 0.47 0.47 0.44 0.41 0.41 0.40 0.39 0.42 0.45 0.44 0.33 0.27 0.37 0.42 0.50 0.58 0.66 0.78 0.79 0.88 0.96 0.96 0.96 0.93 0.95 0.85 0.75 0.83 0.89 0.73 0.71 0.76 0.79 0.82 0.92 1.02 1.28 1.37 1.41
0.54 0.52 0.51 0.50 0.49 0.47 0.46 0.45 0.45 0.46 0.43 0.41 0.41 0.39 0.41 0.45 0.25 0.29 0.41 0.39 0.46 0.59 0.60 0.77 0.79 0.89 0.84 0.87 0.73 0.76 0.93 0.95 0.74 0.76 1.05 0.78 0.79 0.81 0.81 0.71 0.90 0.92 1.07 1.20 1.28
0.55 0.54 0.51 0.50 0.49 0.49 0.49 0.47 0.45 0.44 0.45 0.43 0.42 0.42 0.39 0.35 0.21 0.45 0.42 0.40 0.42 0.54 0.62 0.68 0.69 0.74 0.76 0.66 0.62 0.57 0.71 0.70 0.74 0.84 0.86 0.81 0.90 0.75 0.72 0.86 0.93 1.06 1.10 1.12 1.19
0.51 0.50 0.50 0.48 0.47 0.46 0.47 0.48 0.47 0.45 0.43 0.44 0.45 0.44 0.37 0.26 0.23 0.46 0.42 0.45 0.51 0.47 0.52 0.57 0.60 0.64 0.65 0.53 0.53 0.55 0.64 0.61 0.61 0.72 0.78 0.92 0.85 0.82 0.71 0.76 0.91 1.05 1.03 1.03 1.12
0.47 0.47 0.46 0.45 0.45 0.45 0.46 0.46 0.45 0.43 0.42 0.44 0.47 0.50 0.33 0.18 0.29 0.44 0.36 0.46 0.48 0.43 0.42 0.50 0.57 0.61 0.59 0.50 0.49 0.58 0.57 0.58 0.60 0.65 0.76 0.82 0.83 0.84 0.77 0.80 0.87 0.96 0.93 1.00 1.05
0.47 0.46 0.44 0.42 0.41 0.42 0.42 0.44 0.45 0.44 0.44 0.45 0.47 0.45 0.33 0.25 0.29 0.33 0.45 0.42 0.48 0.43 0.40 0.41 0.55 0.48 0.50 0.44 0.49 0.55 0.52 0.63 0.58 0.64 0.70 0.79 0.65 0.70 0.82 0.86 0.83 0.87 0.91 0.95 1.02
0.46 0.45 0.44 0.40 0.39 0.40 0.40 0.40 0.44 0.47 0.52 0.52 0.51 0.44 0.28 0.39 0.42 0.32 0.31 0.31 0.39 0.44 0.40 0.40 0.44 0.46 0.45 0.51 0.49 0.47 0.51 0.53 0.58 0.62 0.73 0.74 0.59 0.67 0.87 0.82 0.81 0.84 0.89 0.89 0.95
0.49 0.47 0.44 0.38 0.37 0.36 0.37 0.37 0.44 0.56 0.59 0.60 0.50 0.42 0.28 0.48 0.34 0.33 0.30 0.31 0.36 0.34 0.42 0.41 0.44 0.42 0.43 0.37 0.39 0.48 0.41 0.48 0.65 0.60 0.72 0.71 1.05 0.77 0.87 0.81 0.78 0.80 0.84 0.88 0.92
0.55 0.49 0.46 0.41 0.37 0.35 0.35 0.37 0.47 0.61 0.67 0.65 0.57 0.41 0.36 0.32 0.40 0.43 0.43 0.39 0.33 0.33 0.30 0.28 0.31 0.35 0.37 0.38 0.31 0.43 0.45 0.52 0.65 0.62 0.73 0.57 0.96 0.81 0.88 0.89 0.81 0.80 0.79 0.82 0.85
0.60 0.55 0.50 0.43 0.38 0.36 0.37 0.35 0.40 0.48 0.55 0.34 0.42 0.31 0.37 0.38 0.49 0.36 0.43 0.34 0.32 0.31 0.18 0.20 0.19 0.23 0.33 0.39 0.43 0.48 0.52 0.50 0.63 0.65 0.61 0.64 0.73 0.73 0.90 0.93 0.87 0.85 0.78 0.76 0.80
0.66 0.62 0.53 0.45 0.38 0.40 0.44 0.29 0.33 0.30 0.20 0.25 0.26 0.28 0.35 0.39 0.31 0.35 0.45 0.25 0.24 0.23 0.22 0.18 0.14 0.21 0.35 0.40 0.41 0.43 0.48 0.50 0.63 0.66 0.66 0.67 0.72 0.80 0.88 0.89 0.95 0.93 0.87 0.82 0.81
0.73 0.69 0.62 0.51 0.42 0.47 0.32 0.38 0.36 0.34 0.23 0.21 0.22 0.21 0.22 0.25 0.21 0.26 0.34 0.33 0.21 0.22 0.21 0.14 0.14 0.19 0.27 0.36 0.38 0.40 0.43 0.48 0.53 0.69 0.85 0.68 0.73 0.72 0.81 0.91 0.95 0.97 1.04 0.97 0.87
0.80 0.75 0.70 0.57 0.46 0.38 0.39 0.42 0.36 0.35 0.21 0.21 0.23 0.23 0.23 0.24 0.19 0.24 0.29 0.33 0.27 0.20 0.22 0.19 0.17 0.15 0.19 0.26 0.35 0.34 0.44 0.48 0.51 0.63 0.63 0.59 0.49 0.69 0.66 0.76 0.84 0.95 0.97 1.03 0.97
0.83 0.77 0.73 0.63 0.50 0.40 0.41 0.40 0.37 0.37 0.15 0.29 0.31 0.39 0.33 0.24 0.33 0.27 0.30 0.28 0.26 0.25 0.22 0.19 0.18 0.16 0.15 0.18 0.30 0.32 0.44 0.47 0.49 0.54 0.72 0.55 0.49 0.61 0.73 0.64 0.74 0.83 0.94 1.01 1.04
0.84 0.78 0.74 0.62 0.62 0.53 0.48 0.42 0.38 0.27 0.18 0.27 0.33 0.30 0.31 0.30 0.31 0.34 0.27 0.30 0.32 0.28 0.26 0.22 0.25 0.19 0.16 0.18 0.27 0.33 0.39 0.46 0.45 0.48 0.46 0.59 0.55 0.55 0.73 0.68 0.75 0.80 0.87 0.99 1.05
0.79 0.75 0.71 0.71 0.50 0.57 0.46 0.37 0.26 0.21 0.29 0.27 0.28 0.30 0.28 0.27 0.27 0.28 0.23 0.21 0.20 0.19 0.21 0.24 0.22 0.24 0.18 0.17 0.20 0.27 0.31 0.33 0.34 0.35 0.35 0.54 0.51 0.72 0.68 0.67 0.70 0.69 0.81 0.91 1.02
0.74 0.69 0.72 0.71 0.71 0.61 0.44 0.31 0.21 0.25 0.26 0.30 0.30 0.33 0.27 0.28 0.29 0.30 0.26 0.21 0.24 0.26 0.24 0.22 0.18 0.23 0.22 0.16 0.16 0.18 0.25 0.26 0.28 0.32 0.36 0.45 0.44 0.49 0.76 0.69 0.70 0.69 0.66 0.78 0.98
0.69 0.63 0.62 0.64 0.74 0.62 0.43 0.25 0.23 0.28 0.31 0.29 0.31 0.28 0.29 0.29 0.28 0.30 0.31 0.26 0.25 0.26 0.22 0.24 0.24 0.30 0.25 0.21 0.17 0.16 0.18 0.30 0.34 0.41 0.38 0.41 0.45 0.60 0.67 0.68 0.66 0.63 0.60 0.66 0.91
0.58 0.54 0.52 0.64 0.75 0.62 0.41 0.30 0.29 0.32 0.30 0.30 0.27 0.29 0.28 0.31 0.28 0.28 0.31 0.34 0.29 0.29 0.32 0.28 0.26 0.32 0.26 0.25 0.20 0.15 0.20 0.22 0.33 0.30 0.32 0.37 0.40 0.45 0.52 0.58 0.57 0.60 0.57 0.63 0.81
0.53 0.35 0.53 0.65 0.68 0.56 0.38 0.36 0.37 0.37 0.33 0.28 0.29 0.30 0.29 0.30 0.32 0.31 0.29 0.33 0.36 0.33 0.30 0.30 0.30 0.31 0.34 0.23 0.19 0.17 0.15 0.25 0.32 0.35 0.32 0.34 0.41 0.48 0.55 0.62 0.52 0.55 0.55 0.61 0.73
0.43 0.30 0.46 0.52 0.38 0.45 0.39 0.44 0.45 0.38 0.36 0.31 0.29 0.33 0.34 0.32 0.29 0.30 0.31 0.33 0.38 0.37 0.31 0.34 0.33 0.31 0.28 0.33 0.29 0.23 0.17 0.21 0.28 0.30 0.35 0.36 0.38 0.57 0.53 0.55 0.55 0.56 0.58 0.65 0.66
0.36 0.35 0.42 0.38 0.24 0.25 0.34 0.40 0.42 0.41 0.40 0.34 0.28 0.30 0.35 0.33 0.32 0.34 0.35 0.38 0.40 0.39 0.36 0.38 0.33 0.29 0.33 0.29 0.28 0.23 0.20 0.18 0.22 0.35 0.33 0.34 0.34 0.53 0.59 0.54 0.57 0.56 0.54 0.56 0.71
0.40 0.28 0.33 0.38 0.37 0.28 0.26 0.31 0.36 0.43 0.40 0.40 0.34 0.30 0.29 0.30 0.33 0.34 0.37 0.38 0.40 0.38 0.45 0.46 0.41 0.33 0.29 0.31 0.29 0.23 0.21 0.21 0.22 0.21 0.30 0.35 0.41 0.48 0.51 0.52 0.54 0.54 0.56 0.60 0.60
0.44 0.32 0.36 0.30 0.36 0.40 0.46 0.46 0.42 0.48 0.53 0.47 0.40 0.37 0.31 0.27 0.31 0.30 0.34 0.38 0.39 0.37 0.35 0.36 0.34 0.39 0.38 0.42 0.39 0.27 0.21 0.20 0.20 0.24 0.24 0.31 0.38 0.47 0.52 0.54 0.53 0.53 0.52 0.52 0.53
0.40 0.37 0.42 0.33 0.36 0.33 0.40 0.37 0.30 0.38 0.46 0.48 0.45 0.44 0.38 0.31 0.30 0.30 0.32 0.37 0.36 0.35 0.37 0.38 0.32 0.38 0.36 0.38 0.36 0.34 0.34 0.29 0.25 0.22 0.23 0.27 0.30 0.42 0.48 0.60 0.59 0.50 0.50 0.50 0.52
0.54 0.56 0.45 0.32 0.32 0.30 0.26 0.37 0.36 0.37 0.42 0.52 0.58 0.59 0.52 0.48 0.53 0.50 0.47 0.38 0.39 0.45 0.43 0.39 0.41 0.36 0.33 0.43 0.45 0.36 0.32 0.34 0.34 0.33 0.28 0.23 0.24 0.34 0.42 0.47 0.50 0.53 0.54 0.52 0.51

GFSSW_prec_pwat_021.txt.gz
Precipitable_Water
0.53 0.52 0.50 0.47 0.46 0.46 0.47 0.47 0.45 0.43 0.42 0.41 0.39 0.38 0.39 0.38 0.34 0.31 0.21 0.27 0.45 0.59 0.74 0.81 0.92 0.83 1.12 1.43 1.56 1.45 1.03 0.95 0.91 0.82 0.80 1.00 0.96 1.12 1.32 1.15 1.23 1.28 1.23 1.26 1.45
0.50 0.50 0.50 0.49 0.47 0.45 0.44 0.45 0.45 0.43 0.42 0.42 0.42 0.40 0.39 0.40 0.28 0.18 0.18 0.26 0.44 0.69 0.65 0.58 0.68 0.89 0.85 1.00 1.27 1.09 0.93 0.94 1.01 0.96 0.79 0.93 1.01 0.99 1.03 1.06 1.10 1.19 1.43 1.41 1.40
0.45 0.45 0.45 0.46 0.46 0.45 0.44 0.43 0.44 0.44 0.45 0.43 0.44 0.42 0.40 0.41 0.20 0.18 0.45 0.29 0.37 0.55 0.58 0.57 0.59 0.71 0.79 0.88 0.89 1.03 0.83 0.88 0.99 0.99 0.96 0.84 0.93 0.91 0.80 0.88 1.00 0.94 1.19 1.35 1.33
0.46 0.43 0.42 0.43 0.44 0.45 0.44 0.42 0.42 0.43 0.44 0.45 0.45 0.45 0.41 0.35 0.11 0.44 0.47 0.40 0.40 0.48 0.47 0.48 0.50 0.55 0.63 0.70 0.81 0.86 0.88 0.77 0.87 0.92 0.85 0.79 0.88 0.85 0.85 0.94 1.19 1.15 1.20 1.26 1.28
0.48 0.46 0.44 0.42 0.41 0.41 0.42 0.42 0.40 0.41 0.43 0.45 0.47 0.48 0.34 0.25 0.17 0.35 0.40 0.44 0.40 0.32 0.31 0.40 0.44 0.54 0.59 0.67 0.74 0.77 0.77 0.70 0.77 0.87 0.84 0.82 0.88 0.91 0.90 1.04 1.16 1.23 1.14 1.21 1.23
0.54 0.50 0.47 0.45 0.43 0.40 0.39 0.39 0.40 0.41 0.42 0.45 0.49 0.52 0.30 0.15 0.25 0.28 0.35 0.40 0.37 0.31 0.27 0.35 0.45 0.56 0.62 0.62 0.62 0.68 0.64 0.59 0.67 0.80 0.82 0.77 0.84 0.89 0.99 1.15 1.09 1.10 1.02 1.07 1.10
0.66 0.60 0.54 0.49 0.46 0.43 0.40 0.37 0.36 0.38 0.40 0.44 0.53 0.49 0.30 0.19 0.28 0.39 0.40 0.38 0.39 0.33 0.25 0.34 0.47 0.56 0.62 0.60 0.64 0.62 0.54 0.55 0.58 0.60 0.72 0.88 0.94 0.91 1.02 1.04 0.98 1.02 0.98 1.03 1.08
0.71 0.67 0.63 0.56 0.50 0.46 0.42 0.39 0.34 0.35 0.39 0.46 0.59 0.48 0.20 0.29 0.31 0.33 0.38 0.36 0.37 0.35 0.37 0.36 0.43 0.54 0.56 0.61 0.56 0.49 0.47 0.40 0.50 0.60 0.69 0.77 0.69 0.91 0.98 0.92 0.92 0.97 0.91 0.98 1.08
0.79 0.73 0.68 0.63 0.59 0.51 0.44 0.38 0.36 0.40 0.41 0.56 0.46 0.40 0.22 0.41 0.29 0.27 0.33 0.29 0.38 0.43 0.43 0.40 0.43 0.43 0.51 0.46 0.42 0.41 0.32 0.36 0.45 0.62 0.67 0.68 0.68 0.86 0.91 0.93 0.85 0.88 0.89 0.91 1.02
0.83 0.79 0.74 0.68 0.63 0.57 0.49 0.40 0.47 0.57 0.65 0.67 0.57 0.40 0.35 0.27 0.34 0.33 0.35 0.33 0.29 0.32 0.30 0.36 0.35 0.35 0.37 0.39 0.30 0.30 0.30 0.35 0.40 0.60 0.68 0.71 0.69 0.82 0.89 0.87 0.81 0.83 0.85 0.85 0.90
0.86 0.83 0.80 0.75 0.69 0.61 0.53 0.44 0.36 0.39 0.55 0.40 0.41 0.30 0.29 0.39 0.46 0.40 0.35 0.32 0.28 0.23 0.20 0.25 0.24 0.22 0.30 0.34 0.40 0.37 0.33 0.35 0.45 0.60 0.68 0.75 0.73 0.79 0.86 0.81 0.74 0.78 0.82 0.83 0.82
0.87 0.84 0.82 0.79 0.75 0.64 0.63 0.44 0.37 0.39 0.27 0.29 0.26 0.34 0.41 0.51 0.42 0.39 0.41 0.25 0.22 0.17 0.24 0.22 0.17 0.24 0.30 0.34 0.34 0.37 0.32 0.35 0.47 0.64 0.70 0.76 0.76 0.82 0.79 0.68 0.80 0.79 0.83 0.79 0.83
0.82 0.81 0.81 0.81 0.75 0.71 0.54 0.50 0.52 0.42 0.28 0.29 0.29 0.25 0.22 0.37 0.36 0.37 0.38 0.30 0.23 0.20 0.24 0.19 0.22 0.26 0.24 0.27 0.31 0.35 0.32 0.37 0.42 0.63 0.73 0.80 0.70 0.76 0.77 0.82 0.90 0.89 0.91 0.89 0.77
0.76 0.75 0.78 0.80 0.69 0.64 0.51 0.61 0.55 0.43 0.25 0.26 0.28 0.28 0.26 0.26 0.31 0.46 0.43 0.33 0.31 0.23 0.24 0.23 0.25 0.24 0.19 0.20 0.26 0.28 0.39 0.41 0.43 0.50 0.55 0.78 0.58 0.74 0.78 0.86 0.95 0.92 0.90 0.89 0.85
0.75 0.72 0.74 0.73 0.72 0.65 0.58 0.65 0.54 0.45 0.19 0.30 0.28 0.32 0.29 0.22 0.28 0.35 0.45 0.37 0.28 0.26 0.24 0.18 0.23 0.22 0.20 0.16 0.20 0.22 0.40 0.40 0.45 0.43 0.50 0.59 0.63 0.71 0.83 0.84 0.92 0.94 0.96 0.92 0.91
0.68 0.68 0.70 0.63 0.68 0.68 0.71 0.65 0.51 0.31 0.20 0.29 0.29 0.26 0.25 0.24 0.24 0.27 0.33 0.34 0.34 0.30 0.30 0.20 0.26 0.25 0.23 0.23 0.18 0.20 0.28 0.35 0.42 0.41 0.36 0.49 0.62 0.61 0.74 0.83 0.89 0.92 1.01 1.01 1.00
0.60 0.58 0.57 0.66 0.50 0.66 0.69 0.55 0.34 0.25 0.34 0.30 0.30 0.31 0.27 0.25 0.25 0.23 0.24 0.24 0.21 0.19 0.19 0.25 0.23 0.25 0.26 0.20 0.21 0.17 0.18 0.20 0.25 0.30 0.29 0.41 0.48 0.52 0.76 0.80 0.83 0.88 1.03 1.10 1.18
0.55 0.47 0.44 0.50 0.58 0.66 0.63 0.42 0.27 0.30 0.32 0.37 0.36 0.35 0.30 0.29 0.27 0.25 0.23 0.23 0.25 0.23 0.20 0.17 0.18 0.24 0.25 0.23 0.17 0.16 0.16 0.15 0.15 0.19 0.26 0.36 0.34 0.44 0.65 0.74 0.86 0.98 1.01 1.10 1.15
0.49 0.38 0.33 0.37 0.49 0.57 0.48 0.32 0.28 0.34 0.39 0.35 0.36 0.30 0.29 0.33 0.32 0.30 0.24 0.27 0.27 0.24 0.19 0.18 0.17 0.29 0.28 0.26 0.23 0.18 0.13 0.18 0.18 0.23 0.25 0.27 0.34 0.42 0.52 0.62 0.81 0.88 0.89 1.02 1.02
0.42 0.36 0.24 0.48 0.54 0.46 0.34 0.29 0.34 0.42 0.41 0.42 0.33 0.33 0.28 0.30 0.30 0.33 0.31 0.28 0.30 0.31 0.26 0.22 0.20 0.25 0.30 0.31 0.27 0.22 0.21 0.16 0.15 0.13 0.14 0.19 0.27 0.29 0.44 0.52 0.67 0.77 0.84 0.90 1.00
0.43 0.29 0.24 0.43 0.47 0.37 0.23 0.26 0.33 0.43 0.47 0.42 0.39 0.36 0.34 0.32 0.32 0.30 0.28 0.34 0.35 0.35 0.36 0.30 0.24 0.24 0.31 0.28 0.25 0.23 0.19 0.18 0.18 0.16 0.14 0.16 0.18 0.34 0.42 0.58 0.68 0.76 0.77 0.81 0.90
0.38 0.23 0.29 0.46 0.31 0.33 0.27 0.30 0.35 0.33 0.38 0.43 0.45 0.42 0.39 0.38 0.34 0.32 0.29 0.29 0.39 0.38 0.33 0.35 0.29 0.21 0.24 0.33 0.35 0.29 0.23 0.21 0.16 0.15 0.18 0.18 0.17 0.33 0.44 0.57 0.69 0.68 0.72 0.78 0.82
0.33 0.30 0.27 0.38 0.24 0.26 0.30 0.28 0.30 0.27 0.28 0.30 0.33 0.40 0.43 0.39 0.35 0.35 0.33 0.36 0.36 0.35 0.35 0.37 0.29 0.24 0.20 0.28 0.33 0.30 0.30 0.27 0.22 0.19 0.16 0.16 0.13 0.23 0.39 0.54 0.67 0.78 0.89 0.82 0.82
0.42 0.26 0.25 0.35 0.36 0.32 0.26 0.28 0.29 0.38 0.38 0.39 0.39 0.42 0.43 0.41 0.43 0.37 0.37 0.39 0.39 0.35 0.39 0.45 0.34 0.27 0.21 0.22 0.32 0.32 0.32 0.33 0.28 0.19 0.16 0.14 0.16 0.20 0.34 0.43 0.48 0.77 0.87 0.83 0.89
0.48 0.35 0.38 0.26 0.30 0.38 0.40 0.41 0.32 0.28 0.35 0.40 0.37 0.44 0.45 0.43 0.47 0.41 0.45 0.45 0.44 0.42 0.40 0.37 0.33 0.31 0.29 0.31 0.32 0.33 0.37 0.34 0.30 0.25 0.20 0.19 0.17 0.19 0.26 0.45 0.59 0.66 0.69 0.75 0.76
0.44 0.40 0.41 0.35 0.35 0.33 0.35 0.32 0.29 0.33 0.36 0.33 0.35 0.43 0.47 0.49 0.54 0.47 0.48 0.47 0.44 0.45 0.43 0.43 0.34 0.34 0.31 0.32 0.32 0.29 0.35 0.38 0.34 0.32 0.28 0.27 0.22 0.25 0.27 0.41 0.54 0.59 0.64 0.67 0.73
0.58 0.59 0.50 0.41 0.35 0.32 0.29 0.35 0.38 0.41 0.41 0.45 0.41 0.38 0.42 0.48 0.58 0.62 0.59 0.57 0.54 0.49 0.46 0.43 0.40 0.36 0.27 0.34 0.37 0.31 0.29 0.37 0.41 0.37 0.34 0.28 0.26 0.28 0.25 0.31 0.43 0.69 0.72 0.66 0.72

GFSSW_prec_pwat_024.txt.gz
Precipitable_Water
0.50 0.49 0.49 0.48 0.48 0.46 0.44 0.45 0.46 0.46 0.43 0.44 0.44 0.42 0.39 0.39 0.36 0.31 0.17 0.21 0.34 0.78 0.96 1.09 1.17 1.15 1.38 1.41 1.54 1.46 0.95 0.82 0.81 0.80 0.95 1.23 1.10 1.29 1.32 1.12 1.20 1.30 1.13 1.25 1.40
0.47 0.46 0.47 0.47 0.47 0.47 0.46 0.44 0.44 0.44 0.44 0.45 0.45 0.44 0.42 0.42 0.29 0.19 0.18 0.22 0.28 0.57 0.64 0.84 0.77 0.93 1.01 1.14 1.40 1.16 0.91 0.88 0.92 0.92 0.97 1.06 1.15 1.10 1.11 0.99 0.98 1.12 1.37 1.32 1.35
0.50 0.47 0.45 0.44 0.44 0.45 0.45 0.45 0.44 0.43 0.43 0.45 0.47 0.46 0.43 0.45 0.21 0.18 0.42 0.37 0.28 0.49 0.63 0.68 0.65 0.82 0.76 1.00 1.15 1.08 0.86 0.97 0.96 1.03 1.05 1.05 1.14 1.16 1.06 0.84 0.91 0.88 1.07 1.20 1.21
0.56 0.51 0.48 0.46 0.44 0.43 0.43 0.43 0.44 0.44 0.43 0.44 0.46 0.46 0.46 0.38 0.11 0.35 0.47 0.39 0.31 0.44 0.53 0.57 0.56 0.57 0.55 0.70 0.97 0.86 0.99 0.95 0.94 1.02 1.00 1.00 1.14 1.02 1.02 0.88 1.12 1.12 1.08 1.12 1.12
0.65 0.61 0.55 0.50 0.46 0.45 0.43 0.41 0.40 0.41 0.43 0.44 0.46 0.48 0.39 0.24 0.19 0.28 0.42 0.47 0.47 0.41 0.39 0.47 0.49 0.50 0.51 0.64 0.74 0.71 0.78 0.86 0.98 0.96 0.95 0.99 0.95 0.98 1.08 1.13 1.23 1.23 1.14 1.10 1.14
0.74 0.69 0.65 0.61 0.55 0.49 0.45 0.43 0.40 0.38 0.40 0.43 0.47 0.52 0.31 0.16 0.25 0.25 0.24 0.36 0.35 0.33 0.31 0.36 0.44 0.51 0.56 0.60 0.63 0.70 0.69 0.70 0.77 0.79 0.94 0.83 0.85 0.94 1.08 1.18 1.18 1.17 1.06 1.07 1.12
0.82 0.79 0.73 0.68 0.63 0.59 0.51 0.44 0.41 0.39 0.38 0.41 0.47 0.48 0.30 0.20 0.27 0.35 0.35 0.34 0.36 0.33 0.27 0.35 0.39 0.44 0.58 0.57 0.65 0.65 0.56 0.59 0.58 0.57 0.78 0.87 0.81 0.91 1.11 1.22 1.08 1.10 1.12 0.96 1.09
0.82 0.80 0.78 0.74 0.68 0.64 0.60 0.51 0.43 0.40 0.41 0.44 0.49 0.47 0.18 0.29 0.33 0.27 0.27 0.32 0.39 0.39 0.35 0.36 0.38 0.43 0.54 0.63 0.60 0.53 0.51 0.42 0.50 0.67 0.82 0.76 0.66 0.96 1.07 1.13 1.08 1.07 1.12 0.97 1.01
0.83 0.81 0.77 0.75 0.72 0.68 0.63 0.57 0.46 0.52 0.51 0.53 0.45 0.37 0.16 0.37 0.31 0.31 0.27 0.28 0.32 0.37 0.40 0.36 0.37 0.35 0.48 0.47 0.47 0.47 0.40 0.41 0.43 0.59 0.76 0.77 0.69 0.92 1.06 1.03 1.07 1.09 1.03 0.91 0.90
0.85 0.82 0.80 0.76 0.74 0.72 0.68 0.56 0.59 0.69 0.73 0.74 0.64 0.35 0.28 0.21 0.40 0.35 0.29 0.30 0.27 0.32 0.36 0.34 0.34 0.29 0.36 0.37 0.33 0.38 0.39 0.39 0.38 0.50 0.68 0.70 0.72 0.85 1.09 1.08 1.02 1.03 0.97 0.85 0.72
0.82 0.81 0.80 0.78 0.76 0.74 0.71 0.56 0.40 0.40 0.52 0.34 0.38 0.31 0.30 0.41 0.44 0.39 0.29 0.28 0.29 0.28 0.22 0.27 0.25 0.21 0.28 0.36 0.40 0.46 0.42 0.38 0.43 0.46 0.54 0.68 0.74 0.80 1.02 1.04 0.99 0.96 0.91 0.87 0.74
0.80 0.78 0.78 0.76 0.75 0.78 0.72 0.51 0.50 0.48 0.34 0.37 0.35 0.35 0.34 0.38 0.34 0.40 0.40 0.25 0.23 0.17 0.20 0.19 0.16 0.25 0.32 0.34 0.37 0.42 0.39 0.35 0.40 0.42 0.52 0.69 0.71 0.81 0.92 0.93 0.93 0.91 0.93 0.87 0.91
0.74 0.75 0.76 0.74 0.73 0.75 0.61 0.56 0.62 0.54 0.34 0.35 0.38 0.34 0.32 0.30 0.27 0.34 0.42 0.32 0.24 0.19 0.15 0.13 0.17 0.22 0.25 0.29 0.29 0.34 0.37 0.36 0.37 0.41 0.63 0.70 0.68 0.78 0.88 0.93 0.96 0.97 0.94 0.94 0.91
0.67 0.68 0.70 0.71 0.59 0.64 0.56 0.65 0.62 0.56 0.29 0.30 0.31 0.31 0.33 0.30 0.23 0.38 0.47 0.34 0.28 0.20 0.17 0.17 0.21 0.21 0.19 0.22 0.28 0.24 0.37 0.41 0.41 0.39 0.43 0.73 0.53 0.71 0.79 0.81 0.85 0.91 0.95 0.96 0.94
0.58 0.58 0.60 0.63 0.57 0.55 0.58 0.65 0.62 0.49 0.22 0.34 0.31 0.36 0.31 0.27 0.27 0.31 0.44 0.36 0.27 0.23 0.22 0.18 0.20 0.19 0.19 0.20 0.25 0.21 0.35 0.42 0.41 0.39 0.42 0.46 0.56 0.57 0.72 0.70 0.78 0.86 0.92 0.98 1.02
0.52 0.49 0.50 0.45 0.50 0.54 0.67 0.68 0.57 0.34 0.22 0.32 0.33 0.29 0.28 0.27 0.28 0.31 0.37 0.43 0.37 0.31 0.29 0.24 0.29 0.27 0.21 0.24 0.24 0.22 0.25 0.34 0.40 0.40 0.32 0.38 0.42 0.47 0.56 0.71 0.78 0.89 0.94 0.97 1.02
0.51 0.47 0.39 0.43 0.26 0.46 0.59 0.52 0.34 0.26 0.35 0.31 0.31 0.31 0.28 0.27 0.26 0.27 0.33 0.33 0.28 0.23 0.22 0.26 0.25 0.25 0.27 0.23 0.25 0.22 0.17 0.16 0.22 0.27 0.24 0.38 0.38 0.44 0.61 0.74 0.78 0.85 0.90 0.95 1.06
0.48 0.46 0.34 0.32 0.35 0.42 0.46 0.35 0.24 0.30 0.34 0.38 0.36 0.33 0.27 0.28 0.27 0.26 0.25 0.29 0.34 0.28 0.23 0.22 0.17 0.25 0.24 0.22 0.20 0.20 0.18 0.12 0.13 0.18 0.25 0.35 0.30 0.33 0.55 0.69 0.82 0.87 0.93 0.98 1.07
0.48 0.36 0.29 0.36 0.50 0.46 0.32 0.21 0.24 0.33 0.37 0.37 0.37 0.32 0.29 0.31 0.31 0.28 0.24 0.24 0.32 0.32 0.22 0.20 0.19 0.25 0.28 0.27 0.23 0.19 0.18 0.19 0.13 0.18 0.20 0.23 0.33 0.37 0.46 0.60 0.66 0.78 0.94 0.95 1.03
0.44 0.34 0.24 0.49 0.49 0.46 0.28 0.19 0.25 0.35 0.41 0.42 0.33 0.35 0.30 0.32 0.31 0.30 0.28 0.27 0.25 0.29 0.31 0.26 0.19 0.23 0.22 0.29 0.29 0.24 0.24 0.16 0.15 0.09 0.10 0.15 0.22 0.24 0.33 0.41 0.57 0.62 0.77 0.92 1.01
0.43 0.29 0.19 0.40 0.39 0.37 0.23 0.22 0.24 0.29 0.41 0.38 0.38 0.37 0.36 0.35 0.35 0.33 0.31 0.31 0.32 0.30 0.31 0.29 0.26 0.23 0.22 0.22 0.22 0.23 0.22 0.20 0.18 0.15 0.10 0.10 0.11 0.21 0.27 0.38 0.44 0.56 0.65 0.80 0.91
0.43 0.25 0.26 0.40 0.26 0.32 0.28 0.28 0.31 0.29 0.30 0.38 0.40 0.38 0.37 0.38 0.32 0.32 0.32 0.35 0.38 0.37 0.31 0.31 0.28 0.21 0.20 0.22 0.29 0.28 0.24 0.22 0.17 0.14 0.15 0.13 0.09 0.20 0.22 0.36 0.44 0.49 0.66 0.83 0.92
0.37 0.34 0.37 0.43 0.22 0.28 0.35 0.35 0.37 0.34 0.35 0.32 0.34 0.40 0.45 0.42 0.35 0.36 0.38 0.44 0.49 0.44 0.36 0.38 0.26 0.21 0.22 0.23 0.27 0.27 0.27 0.25 0.22 0.20 0.15 0.13 0.13 0.19 0.20 0.29 0.49 0.65 0.69 0.87 0.96
0.44 0.29 0.31 0.34 0.42 0.32 0.32 0.36 0.35 0.40 0.36 0.37 0.35 0.40 0.41 0.39 0.45 0.41 0.41 0.47 0.53 0.51 0.51 0.42 0.32 0.25 0.19 0.22 0.23 0.23 0.25 0.28 0.25 0.19 0.17 0.14 0.16 0.19 0.21 0.25 0.37 0.44 0.43 0.63 0.87
0.47 0.36 0.39 0.26 0.28 0.36 0.36 0.34 0.34 0.33 0.38 0.39 0.34 0.35 0.36 0.33 0.40 0.39 0.47 0.48 0.51 0.54 0.50 0.44 0.29 0.29 0.27 0.29 0.29 0.23 0.25 0.27 0.25 0.23 0.20 0.19 0.19 0.20 0.20 0.23 0.34 0.39 0.53 0.62 0.79
0.43 0.42 0.44 0.36 0.38 0.32 0.34 0.34 0.35 0.37 0.38 0.32 0.32 0.34 0.35 0.32 0.35 0.39 0.46 0.45 0.45 0.52 0.50 0.48 0.32 0.34 0.28 0.30 0.29 0.27 0.27 0.28 0.28 0.27 0.25 0.25 0.25 0.30 0.27 0.23 0.28 0.35 0.46 0.74 0.66
0.57 0.58 0.48 0.39 0.35 0.32 0.29 0.32 0.34 0.40 0.44 0.45 0.39 0.37 0.32 0.33 0.37 0.42 0.50 0.53 0.52 0.49 0.49 0.47 0.40 0.34 0.26 0.33 0.31 0.29 0.25 0.28 0.30 0.33 0.29 0.25 0.31 0.34 0.30 0.27 0.27 0.34 0.46 0.55 0.71

GFSSW_prec_pwat_027.txt.gz
Precipitable_Water
0.51 0.49 0.48 0.47 0.48 0.48 0.49 0.48 0.46 0.45 0.46 0.47 0.46 0.44 0.44 0.43 0.38 0.31 0.15 0.19 0.31 0.92 1.21 1.14 1.19 1.20 1.45 1.43 1.60 1.43 1.02 0.82 0.81 0.86 0.90 1.17 1.13 1.28 1.28 1.01 1.03 1.16 1.11 1.23 1.42
0.57 0.54 0.52 0.49 0.47 0.46 0.46 0.47 0.47 0.45 0.44 0.45 0.46 0.46 0.46 0.47 0.33 0.21 0.20 0.24 0.31 0.73 0.88 0.95 0.91 1.15 1.15 1.19 1.39 1.24 0.95 0.86 0.98 0.99 0.92 1.13 1.14 1.13 1.05 0.88 0.91 1.11 1.15 1.26 1.34
0.66 0.61 0.57 0.55 0.53 0.49 0.47 0.45 0.45 0.45 0.45 0.44 0.45 0.45 0.48 0.49 0.24 0.21 0.39 0.40 0.36 0.60 0.70 0.86 1.07 1.02 0.88 1.06 1.11 1.11 0.88 0.99 0.96 1.02 1.15 1.09 1.14 1.20 1.07 0.88 0.87 0.80 0.98 1.18 1.20
0.78 0.72 0.66 0.62 0.58 0.55 0.52 0.49 0.45 0.43 0.44 0.46 0.46 0.45 0.50 0.41 0.14 0.32 0.49 0.52 0.40 0.48 0.57 0.77 0.82 0.78 0.67 0.78 0.96 0.89 1.00 1.01 0.95 0.99 1.10 1.16 1.19 1.04 1.08 0.98 1.01 0.96 1.00 1.05 1.06
0.81 0.79 0.76 0.71 0.65 0.62 0.56 0.52 0.48 0.44 0.43 0.44 0.46 0.46 0.41 0.26 0.22 0.30 0.47 0.57 0.43 0.35 0.37 0.48 0.52 0.65 0.55 0.67 0.82 0.87 0.92 0.93 0.89 0.96 1.02 1.18 1.14 1.03 1.02 1.17 1.19 1.11 1.06 0.96 1.02
0.84 0.81 0.78 0.76 0.73 0.68 0.63 0.58 0.51 0.48 0.46 0.44 0.45 0.47 0.28 0.15 0.28 0.27 0.28 0.48 0.39 0.31 0.34 0.44 0.47 0.53 0.54 0.60 0.59 0.68 0.74 0.74 0.73 0.70 0.87 0.98 1.12 1.15 1.14 1.27 1.24 1.11 1.05 0.95 1.01
0.84 0.80 0.77 0.75 0.74 0.72 0.68 0.64 0.60 0.52 0.47 0.47 0.46 0.42 0.26 0.18 0.29 0.32 0.29 0.33 0.43 0.36 0.30 0.38 0.46 0.46 0.49 0.49 0.61 0.60 0.54 0.59 0.61 0.61 0.62 0.86 0.92 0.94 1.12 1.21 1.18 1.04 1.07 0.96 1.03
0.84 0.81 0.78 0.75 0.73 0.71 0.70 0.68 0.64 0.58 0.54 0.53 0.51 0.44 0.15 0.24 0.31 0.27 0.31 0.25 0.33 0.39 0.33 0.34 0.41 0.40 0.45 0.54 0.56 0.54 0.51 0.46 0.58 0.58 0.57 0.69 0.68 0.94 1.11 1.11 1.11 1.17 1.14 0.99 0.98
0.82 0.79 0.78 0.76 0.74 0.72 0.71 0.70 0.66 0.72 0.66 0.64 0.50 0.38 0.16 0.33 0.27 0.28 0.29 0.24 0.30 0.38 0.37 0.39 0.41 0.34 0.39 0.39 0.44 0.46 0.41 0.46 0.48 0.56 0.67 0.66 0.66 0.94 1.10 1.10 1.07 1.14 1.10 1.06 0.93
0.80 0.78 0.76 0.76 0.73 0.72 0.76 0.72 0.74 0.85 0.84 0.80 0.70 0.38 0.31 0.22 0.43 0.42 0.36 0.27 0.28 0.31 0.31 0.35 0.33 0.27 0.28 0.34 0.30 0.38 0.40 0.45 0.44 0.47 0.69 0.66 0.68 0.92 1.05 1.05 1.04 1.03 1.03 1.08 0.90
0.75 0.74 0.74 0.72 0.72 0.73 0.71 0.65 0.49 0.45 0.55 0.42 0.43 0.37 0.32 0.37 0.42 0.39 0.35 0.26 0.31 0.29 0.21 0.27 0.22 0.18 0.22 0.30 0.41 0.44 0.43 0.44 0.47 0.47 0.44 0.53 0.66 0.85 1.01 1.06 1.03 1.04 1.00 0.99 0.93
0.66 0.66 0.66 0.65 0.66 0.76 0.65 0.52 0.55 0.55 0.39 0.47 0.45 0.40 0.41 0.41 0.32 0.36 0.39 0.25 0.24 0.19 0.24 0.23 0.17 0.22 0.28 0.29 0.36 0.42 0.40 0.42 0.47 0.47 0.44 0.47 0.58 0.81 1.01 0.96 0.97 0.95 1.02 0.96 0.96
0.56 0.56 0.57 0.56 0.56 0.62 0.60 0.56 0.62 0.60 0.37 0.37 0.43 0.40 0.40 0.41 0.31 0.32 0.38 0.27 0.22 0.19 0.19 0.17 0.18 0.24 0.23 0.25 0.28 0.33 0.37 0.42 0.41 0.45 0.47 0.46 0.56 0.73 0.94 1.06 1.08 1.06 1.05 1.06 0.96
0.48 0.47 0.50 0.49 0.38 0.46 0.51 0.60 0.63 0.61 0.31 0.31 0.34 0.34 0.36 0.40 0.33 0.36 0.43 0.31 0.27 0.19 0.20 0.19 0.22 0.18 0.19 0.20 0.26 0.24 0.36 0.44 0.41 0.39 0.31 0.49 0.42 0.62 0.82 0.89 0.94 0.99 1.05 1.07 1.02
0.45 0.41 0.42 0.46 0.36 0.30 0.43 0.59 0.63 0.50 0.21 0.36 0.32 0.37 0.32 0.29 0.31 0.36 0.40 0.39 0.25 0.24 0.22 0.17 0.15 0.17 0.16 0.16 0.23 0.20 0.35 0.43 0.41 0.37 0.35 0.35 0.38 0.58 0.77 0.75 0.81 0.88 0.97 1.06 1.10
0.45 0.41 0.40 0.38 0.37 0.34 0.43 0.53 0.51 0.32 0.21 0.32 0.33 0.29 0.28 0.29 0.28 0.33 0.32 0.46 0.38 0.30 0.29 0.23 0.24 0.19 0.18 0.21 0.21 0.24 0.28 0.34 0.42 0.38 0.28 0.33 0.34 0.40 0.57 0.68 0.73 0.82 0.94 0.98 1.06
0.44 0.39 0.37 0.40 0.23 0.34 0.36 0.38 0.26 0.21 0.34 0.30 0.30 0.33 0.31 0.26 0.26 0.30 0.26 0.33 0.29 0.24 0.22 0.26 0.24 0.28 0.28 0.21 0.24 0.23 0.20 0.20 0.23 0.26 0.21 0.34 0.32 0.34 0.54 0.63 0.66 0.72 0.84 0.94 1.00
0.45 0.37 0.34 0.44 0.48 0.43 0.29 0.24 0.15 0.23 0.29 0.35 0.35 0.34 0.29 0.30 0.27 0.27 0.29 0.28 0.34 0.30 0.25 0.22 0.19 0.24 0.27 0.25 0.20 0.20 0.19 0.14 0.13 0.17 0.21 0.30 0.24 0.27 0.48 0.57 0.72 0.78 0.83 0.93 0.97
0.46 0.31 0.30 0.43 0.48 0.46 0.22 0.15 0.14 0.21 0.32 0.33 0.36 0.30 0.29 0.32 0.32 0.29 0.28 0.32 0.35 0.34 0.25 0.24 0.23 0.31 0.29 0.26 0.25 0.21 0.18 0.20 0.15 0.18 0.17 0.21 0.25 0.32 0.43 0.50 0.59 0.66 0.77 0.86 0.94
0.40 0.30 0.29 0.43 0.49 0.43 0.25 0.14 0.19 0.29 0.32 0.34 0.30 0.35 0.29 0.31 0.29 0.30 0.28 0.31 0.33 0.42 0.39 0.29 0.21 0.28 0.28 0.31 0.28 0.23 0.23 0.17 0.17 0.12 0.11 0.13 0.16 0.20 0.31 0.41 0.48 0.55 0.64 0.78 0.88
0.39 0.24 0.34 0.44 0.40 0.31 0.20 0.21 0.22 0.28 0.33 0.29 0.30 0.32 0.35 0.33 0.33 0.29 0.30 0.34 0.36 0.35 0.42 0.37 0.28 0.24 0.27 0.24 0.22 0.23 0.20 0.20 0.19 0.16 0.11 0.09 0.10 0.18 0.22 0.33 0.43 0.52 0.57 0.66 0.76
0.37 0.20 0.38 0.46 0.24 0.32 0.30 0.34 0.35 0.28 0.32 0.32 0.33 0.33 0.35 0.38 0.35 0.33 0.31 0.35 0.44 0.43 0.33 0.39 0.31 0.24 0.25 0.27 0.27 0.26 0.23 0.23 0.17 0.14 0.14 0.12 0.11 0.19 0.17 0.21 0.33 0.43 0.47 0.55 0.59
0.31 0.30 0.44 0.42 0.23 0.26 0.34 0.37 0.40 0.35 0.33 0.33 0.31 0.36 0.41 0.39 0.34 0.40 0.40 0.50 0.49 0.44 0.41 0.41 0.29 0.20 0.20 0.24 0.28 0.25 0.23 0.24 0.22 0.21 0.15 0.12 0.12 0.18 0.18 0.19 0.25 0.36 0.47 0.55 0.60
0.38 0.24 0.34 0.41 0.38 0.31 0.28 0.32 0.36 0.46 0.37 0.38 0.35 0.39 0.35 0.36 0.44 0.40 0.40 0.49 0.52 0.48 0.52 0.46 0.34 0.27 0.19 0.23 0.26 0.23 0.24 0.24 0.22 0.17 0.16 0.15 0.17 0.18 0.19 0.19 0.19 0.24 0.36 0.47 0.58
0.43 0.33 0.39 0.28 0.32 0.34 0.33 0.31 0.32 0.35 0.47 0.43 0.34 0.35 0.34 0.28 0.36 0.39 0.45 0.43 0.45 0.49 0.47 0.45 0.32 0.32 0.32 0.32 0.30 0.28 0.25 0.22 0.21 0.21 0.18 0.18 0.18 0.20 0.21 0.20 0.22 0.23 0.32 0.38 0.43
0.40 0.38 0.42 0.35 0.39 0.36 0.34 0.30 0.32 0.34 0.36 0.36 0.39 0.37 0.36 0.31 0.32 0.34 0.41 0.43 0.40 0.44 0.41 0.46 0.35 0.37 0.30 0.31 0.30 0.26 0.27 0.23 0.21 0.23 0.23 0.22 0.20 0.24 0.25 0.26 0.24 0.22 0.27 0.32 0.37
0.56 0.56 0.46 0.38 0.37 0.34 0.33 0.32 0.30 0.36 0.40 0.48 0.40 0.35 0.34 0.36 0.38 0.38 0.43 0.47 0.47 0.43 0.40 0.39 0.39 0.36 0.27 0.32 0.31 0.25 0.22 0.25 0.25 0.26 0.26 0.21 0.24 0.29 0.28 0.29 0.29 0.27 0.24 0.29 0.35

GFSSW_prec_pwat_030.txt.gz
Precipitable_Water
0.65 0.60 0.57 0.55 0.53 0.51 0.49 0.49 0.49 0.49 0.48 0.45 0.45 0.47 0.47 0.46 0.42 0.33 0.16 0.19 0.29 0.61 1.18 1.15 1.14 1.19 1.41 1.37 1.58 1.48 0.94 0.78 0.84 0.93 0.97 1.21 1.10 1.22 1.22 0.99 1.08 1.17 1.14 1.28 1.46
0.76 0.71 0.67 0.62 0.57 0.54 0.53 0.50 0.49 0.48 0.48 0.47 0.45 0.46 0.48 0.50 0.38 0.25 0.26 0.26 0.31 0.69 0.98 0.90 0.89 1.06 1.10 1.24 1.40 1.18 0.98 0.88 0.95 1.00 0.97 1.18 1.13 1.14 1.06 0.92 0.90 1.04 1.14 1.28 1.35
0.82 0.79 0.76 0.72 0.67 0.63 0.56 0.52 0.50 0.48 0.46 0.46 0.47 0.46 0.47 0.51 0.26 0.21 0.38 0.38 0.39 0.62 0.89 0.99 1.09 1.02 0.97 1.21 1.21 1.17 0.92 1.05 0.98 0.97 1.06 1.16 1.20 1.25 1.07 0.84 0.84 0.86 1.01 1.15 1.17
0.85 0.82 0.79 0.77 0.74 0.70 0.66 0.60 0.53 0.50 0.48 0.47 0.47 0.48 0.48 0.41 0.15 0.34 0.48 0.51 0.47 0.62 0.70 0.86 0.98 0.88 0.87 0.90 1.07 0.88 1.01 1.08 0.99 0.95 1.06 1.08 1.24 1.17 1.13 1.01 1.03 1.01 0.94 1.10 1.07
0.86 0.83 0.81 0.78 0.75 0.74 0.72 0.68 0.64 0.57 0.52 0.50 0.48 0.48 0.41 0.23 0.21 0.48 0.51 0.55 0.68 0.51 0.44 0.60 0.78 0.82 0.70 0.82 0.90 0.83 0.89 1.00 0.98 0.94 0.91 1.05 1.05 1.09 1.13 1.23 1.25 1.10 1.01 0.97 1.06
0.85 0.82 0.80 0.77 0.75 0.73 0.72 0.72 0.68 0.64 0.60 0.54 0.52 0.51 0.27 0.13 0.25 0.29 0.42 0.47 0.58 0.46 0.37 0.47 0.68 0.85 0.60 0.70 0.68 0.75 0.78 0.80 0.82 0.74 0.80 0.74 0.90 1.09 1.16 1.32 1.26 1.15 1.11 0.94 1.02
0.82 0.81 0.79 0.77 0.75 0.72 0.70 0.71 0.70 0.69 0.67 0.63 0.57 0.48 0.27 0.15 0.27 0.32 0.46 0.40 0.48 0.36 0.27 0.38 0.53 0.58 0.55 0.51 0.60 0.64 0.61 0.65 0.65 0.65 0.65 0.73 0.77 0.83 1.15 1.29 1.24 1.18 1.20 1.03 1.00
0.79 0.78 0.77 0.76 0.74 0.72 0.72 0.71 0.73 0.74 0.73 0.71 0.65 0.50 0.18 0.23 0.27 0.27 0.35 0.39 0.43 0.42 0.32 0.38 0.44 0.47 0.47 0.51 0.51 0.51 0.53 0.48 0.57 0.59 0.58 0.69 0.53 0.81 1.10 1.20 1.21 1.20 1.21 1.12 0.93
0.70 0.69 0.68 0.69 0.69 0.70 0.72 0.75 0.82 0.85 0.78 0.76 0.61 0.46 0.24 0.35 0.23 0.26 0.29 0.28 0.38 0.39 0.38 0.40 0.39 0.35 0.40 0.39 0.39 0.42 0.39 0.44 0.49 0.56 0.58 0.63 0.55 0.75 1.01 1.09 1.14 1.13 1.12 1.08 1.00
0.61 0.61 0.61 0.60 0.60 0.66 0.70 0.80 0.92 0.95 0.89 0.87 0.75 0.42 0.37 0.26 0.36 0.30 0.30 0.28 0.25 0.28 0.32 0.32 0.30 0.26 0.30 0.30 0.24 0.32 0.39 0.43 0.43 0.50 0.56 0.61 0.59 0.74 0.95 1.06 1.06 1.13 1.13 1.04 1.02
0.51 0.53 0.53 0.52 0.51 0.61 0.64 0.64 0.53 0.49 0.55 0.51 0.51 0.43 0.38 0.36 0.47 0.38 0.36 0.27 0.29 0.26 0.20 0.27 0.21 0.14 0.21 0.27 0.31 0.38 0.40 0.42 0.47 0.51 0.51 0.56 0.61 0.77 0.94 1.02 1.04 1.07 1.13 1.01 0.96
0.43 0.44 0.46 0.45 0.43 0.54 0.57 0.51 0.52 0.56 0.41 0.49 0.48 0.47 0.52 0.49 0.33 0.39 0.40 0.24 0.22 0.17 0.24 0.22 0.14 0.21 0.23 0.26 0.27 0.31 0.36 0.41 0.46 0.49 0.47 0.43 0.55 0.69 0.87 0.90 0.97 1.04 1.08 1.07 0.99
0.40 0.40 0.41 0.38 0.38 0.38 0.42 0.47 0.59 0.61 0.39 0.41 0.46 0.44 0.46 0.47 0.38 0.33 0.38 0.28 0.21 0.19 0.20 0.15 0.18 0.24 0.22 0.21 0.22 0.24 0.29 0.40 0.41 0.45 0.49 0.46 0.42 0.53 0.80 0.94 1.05 1.12 1.08 1.11 1.07
0.41 0.41 0.40 0.39 0.23 0.29 0.26 0.44 0.50 0.60 0.30 0.31 0.36 0.38 0.41 0.44 0.37 0.43 0.43 0.31 0.26 0.21 0.22 0.21 0.24 0.22 0.19 0.18 0.21 0.18 0.30 0.40 0.42 0.38 0.34 0.48 0.30 0.48 0.65 0.76 0.86 0.96 1.02 1.06 1.11
0.40 0.41 0.41 0.42 0.30 0.20 0.24 0.40 0.48 0.45 0.17 0.34 0.32 0.38 0.36 0.33 0.35 0.40 0.47 0.38 0.25 0.23 0.24 0.21 0.20 0.20 0.18 0.16 0.22 0.18 0.28 0.33 0.41 0.40 0.37 0.37 0.32 0.35 0.52 0.67 0.75 0.89 0.92 0.99 1.04
0.41 0.38 0.43 0.36 0.37 0.34 0.37 0.36 0.41 0.22 0.15 0.29 0.31 0.29 0.31 0.31 0.30 0.37 0.39 0.47 0.37 0.28 0.25 0.23 0.27 0.24 0.20 0.21 0.21 0.22 0.22 0.27 0.33 0.35 0.28 0.32 0.32 0.28 0.38 0.55 0.73 0.84 0.94 0.98 1.04
0.39 0.39 0.40 0.46 0.28 0.41 0.40 0.27 0.17 0.13 0.27 0.26 0.28 0.32 0.32 0.29 0.28 0.31 0.32 0.33 0.30 0.23 0.21 0.25 0.23 0.24 0.22 0.19 0.21 0.21 0.18 0.15 0.17 0.21 0.20 0.33 0.31 0.28 0.41 0.52 0.64 0.73 0.85 0.93 1.00
0.40 0.40 0.38 0.43 0.46 0.43 0.32 0.18 0.11 0.18 0.21 0.32 0.33 0.33 0.28 0.32 0.29 0.29 0.29 0.28 0.36 0.31 0.26 0.21 0.19 0.25 0.26 0.19 0.16 0.18 0.17 0.13 0.11 0.14 0.19 0.30 0.21 0.26 0.41 0.55 0.66 0.72 0.76 0.86 0.90
0.42 0.34 0.34 0.40 0.44 0.43 0.25 0.11 0.13 0.18 0.26 0.28 0.32 0.28 0.29 0.32 0.31 0.29 0.29 0.30 0.36 0.35 0.25 0.24 0.22 0.31 0.29 0.27 0.23 0.19 0.17 0.19 0.15 0.18 0.16 0.20 0.24 0.31 0.38 0.47 0.58 0.64 0.71 0.74 0.84
0.37 0.31 0.30 0.43 0.43 0.34 0.23 0.13 0.18 0.31 0.32 0.29 0.23 0.31 0.27 0.30 0.29 0.28 0.28 0.38 0.35 0.42 0.40 0.31 0.23 0.29 0.31 0.32 0.30 0.24 0.23 0.17 0.17 0.11 0.10 0.13 0.15 0.17 0.25 0.34 0.49 0.59 0.63 0.67 0.77
0.36 0.23 0.32 0.43 0.43 0.29 0.17 0.23 0.24 0.35 0.36 0.30 0.26 0.26 0.31 0.31 0.32 0.29 0.29 0.39 0.43 0.42 0.45 0.38 0.29 0.26 0.31 0.28 0.24 0.24 0.21 0.21 0.20 0.16 0.10 0.09 0.11 0.18 0.19 0.27 0.35 0.47 0.60 0.63 0.69
0.36 0.20 0.39 0.44 0.24 0.29 0.23 0.28 0.38 0.33 0.37 0.35 0.34 0.31 0.29 0.36 0.34 0.33 0.32 0.38 0.48 0.49 0.40 0.46 0.35 0.27 0.27 0.32 0.34 0.29 0.23 0.22 0.16 0.13 0.15 0.14 0.11 0.18 0.16 0.18 0.27 0.42 0.53 0.58 0.64
0.30 0.31 0.45 0.43 0.20 0.23 0.28 0.30 0.36 0.37 0.35 0.34 0.33 0.37 0.38 0.32 0.32 0.39 0.40 0.49 0.47 0.45 0.43 0.44 0.36 0.26 0.27 0.30 0.31 0.28 0.28 0.25 0.22 0.20 0.14 0.12 0.12 0.18 0.19 0.19 0.19 0.23 0.36 0.52 0.53
0.37 0.24 0.33 0.40 0.38 0.31 0.27 0.25 0.27 0.42 0.42 0.42 0.39 0.39 0.34 0.31 0.37 0.39 0.41 0.48 0.47 0.48 0.50 0.46 0.38 0.33 0.26 0.29 0.33 0.26 0.26 0.27 0.25 0.18 0.17 0.15 0.15 0.18 0.18 0.18 0.18 0.19 0.23 0.33 0.47
0.44 0.33 0.37 0.26 0.29 0.33 0.33 0.29 0.29 0.27 0.38 0.48 0.42 0.36 0.33 0.27 0.29 0.31 0.41 0.43 0.45 0.46 0.43 0.42 0.32 0.35 0.36 0.36 0.34 0.31 0.28 0.27 0.23 0.24 0.19 0.20 0.19 0.21 0.22 0.22 0.23 0.22 0.23 0.28 0.31
0.41 0.37 0.42 0.37 0.36 0.34 0.33 0.29 0.28 0.29 0.32 0.33 0.39 0.42 0.38 0.31 0.31 0.27 0.33 0.40 0.39 0.43 0.39 0.42 0.32 0.35 0.30 0.34 0.33 0.28 0.29 0.27 0.26 0.25 0.24 0.23 0.22 0.26 0.26 0.25 0.23 0.23 0.23 0.23 0.23
0.56 0.56 0.45 0.39 0.35 0.32 0.32 0.32 0.30 0.33 0.33 0.43 0.42 0.40 0.36 0.38 0.41 0.39 0.39 0.39 0.42 0.40 0.38 0.36 0.32 0.31 0.26 0.33 0.31 0.23 0.25 0.27 0.26 0.27 0.25 0.19 0.23 0.28 0.26 0.24 0.24 0.25 0.26 0.26 0.26

GFSSW_prec_pwat_033.txt.gz
Precipitable_Water
0.80 0.77 0.72 0.68 0.62 0.57 0.54 0.52 0.49 0.48 0.49 0.49 0.47 0.48 0.47 0.47 0.44 0.38 0.20 0.23 0.28 0.60 1.01 1.06 1.16 1.17 1.41 1.34 1.52 1.46 0.96 0.82 0.87 0.92 0.95 1.22 1.10 1.18 1.14 1.02 1.13 1.28 1.23 1.36 1.57
0.85 0.82 0.80 0.77 0.73 0.68 0.63 0.57 0.53 0.50 0.48 0.48 0.49 0.48 0.48 0.48 0.36 0.25 0.30 0.30 0.31 0.63 0.75 0.84 0.86 1.03 1.04 1.17 1.31 1.10 0.91 0.86 1.00 0.98 0.90 1.10 1.14 1.11 0.97 0.90 0.99 1.09 1.24 1.40 1.47
0.88 0.86 0.83 0.80 0.78 0.74 0.71 0.68 0.63 0.55 0.52 0.50 0.49 0.50 0.49 0.49 0.25 0.21 0.37 0.40 0.38 0.58 0.69 0.95 1.01 0.98 0.92 1.17 1.17 1.14 0.91 1.01 0.95 0.99 1.04 1.08 1.16 1.22 1.02 0.79 0.89 0.99 1.06 1.19 1.25
0.85 0.82 0.81 0.80 0.78 0.76 0.74 0.70 0.67 0.65 0.59 0.54 0.53 0.51 0.49 0.40 0.14 0.28 0.51 0.52 0.55 0.67 0.71 0.93 0.91 0.76 0.77 0.86 1.16 0.97 1.06 1.05 1.03 1.04 1.05 1.08 1.15 1.14 1.11 0.96 1.02 1.05 1.14 1.16 1.11
0.81 0.79 0.78 0.77 0.76 0.75 0.73 0.72 0.71 0.69 0.66 0.62 0.57 0.55 0.42 0.21 0.19 0.42 0.51 0.53 0.79 0.66 0.52 0.73 0.73 0.79 0.65 0.88 1.01 0.91 0.96 0.99 1.01 1.00 0.98 1.05 0.91 0.97 1.10 1.20 1.19 1.21 1.09 1.08 1.09
0.76 0.74 0.74 0.73 0.72 0.71 0.71 0.71 0.72 0.71 0.69 0.68 0.66 0.62 0.33 0.13 0.19 0.28 0.45 0.53 0.65 0.59 0.51 0.67 0.72 0.91 0.77 0.78 0.80 0.82 0.87 0.87 0.81 0.80 0.89 0.81 0.81 0.91 1.06 1.29 1.24 1.23 1.13 1.00 1.06
0.65 0.64 0.64 0.65 0.65 0.65 0.68 0.72 0.73 0.72 0.73 0.74 0.74 0.64 0.35 0.16 0.23 0.37 0.48 0.50 0.62 0.56 0.43 0.51 0.69 0.70 0.73 0.64 0.76 0.68 0.62 0.69 0.70 0.67 0.68 0.71 0.67 0.73 1.05 1.21 1.23 1.22 1.23 1.03 1.04
0.58 0.58 0.58 0.58 0.57 0.56 0.65 0.70 0.84 0.86 0.82 0.79 0.78 0.63 0.30 0.30 0.26 0.36 0.51 0.44 0.71 0.61 0.50 0.50 0.52 0.73 0.54 0.55 0.54 0.52 0.57 0.54 0.67 0.66 0.64 0.66 0.50 0.72 1.00 1.11 1.11 1.21 1.23 1.17 0.98
0.48 0.49 0.51 0.53 0.51 0.50 0.60 0.68 0.93 0.93 0.90 0.86 0.70 0.55 0.31 0.47 0.27 0.23 0.32 0.34 0.56 0.52 0.40 0.43 0.47 0.43 0.45 0.39 0.37 0.42 0.39 0.50 0.55 0.60 0.59 0.63 0.53 0.70 0.96 0.97 1.08 1.16 1.17 1.17 1.09
0.44 0.43 0.43 0.43 0.44 0.46 0.53 0.69 0.88 0.93 0.94 0.93 0.77 0.47 0.42 0.32 0.31 0.25 0.29 0.39 0.39 0.37 0.34 0.33 0.32 0.27 0.30 0.30 0.24 0.32 0.37 0.46 0.48 0.52 0.57 0.56 0.57 0.77 0.92 0.93 0.97 1.10 1.14 1.11 1.09
0.44 0.43 0.42 0.36 0.36 0.37 0.46 0.48 0.45 0.49 0.55 0.55 0.57 0.46 0.45 0.44 0.56 0.28 0.27 0.36 0.35 0.31 0.19 0.26 0.20 0.14 0.22 0.28 0.33 0.38 0.38 0.42 0.50 0.52 0.53 0.51 0.54 0.70 0.88 0.97 0.97 1.08 1.13 1.10 1.07
0.41 0.42 0.41 0.36 0.33 0.34 0.37 0.31 0.36 0.43 0.37 0.50 0.52 0.53 0.55 0.53 0.42 0.41 0.28 0.24 0.25 0.19 0.23 0.22 0.13 0.18 0.22 0.27 0.29 0.33 0.35 0.38 0.47 0.50 0.47 0.48 0.51 0.61 0.79 0.83 0.95 1.01 1.09 1.09 1.10
0.42 0.40 0.38 0.37 0.34 0.31 0.28 0.32 0.44 0.46 0.30 0.34 0.45 0.47 0.50 0.48 0.40 0.42 0.36 0.27 0.23 0.21 0.19 0.14 0.16 0.21 0.19 0.19 0.21 0.26 0.28 0.34 0.40 0.45 0.46 0.46 0.43 0.48 0.66 0.79 0.92 1.03 1.15 1.18 1.09
0.44 0.42 0.38 0.37 0.23 0.29 0.24 0.37 0.42 0.47 0.19 0.21 0.29 0.38 0.46 0.48 0.38 0.46 0.49 0.33 0.26 0.21 0.23 0.20 0.23 0.21 0.17 0.15 0.17 0.14 0.27 0.32 0.37 0.37 0.33 0.44 0.29 0.45 0.55 0.62 0.78 0.91 0.98 1.07 1.11
0.42 0.43 0.40 0.41 0.31 0.25 0.30 0.40 0.41 0.41 0.09 0.27 0.29 0.38 0.38 0.40 0.41 0.43 0.47 0.43 0.27 0.23 0.24 0.20 0.21 0.21 0.18 0.15 0.21 0.14 0.23 0.25 0.32 0.36 0.37 0.37 0.34 0.42 0.55 0.54 0.62 0.78 0.83 1.01 1.10
0.40 0.40 0.41 0.38 0.37 0.35 0.39 0.38 0.38 0.17 0.09 0.23 0.27 0.28 0.30 0.33 0.34 0.42 0.44 0.45 0.41 0.31 0.26 0.23 0.28 0.27 0.22 0.23 0.22 0.23 0.22 0.23 0.27 0.30 0.25 0.33 0.33 0.33 0.41 0.51 0.56 0.70 0.85 0.96 1.03
0.39 0.38 0.39 0.42 0.27 0.39 0.40 0.25 0.16 0.11 0.22 0.22 0.26 0.31 0.30 0.28 0.28 0.33 0.37 0.33 0.31 0.25 0.23 0.25 0.24 0.28 0.29 0.23 0.25 0.23 0.19 0.14 0.13 0.16 0.16 0.30 0.31 0.29 0.45 0.52 0.55 0.57 0.72 0.91 0.98
0.39 0.38 0.38 0.39 0.42 0.39 0.33 0.14 0.12 0.18 0.20 0.31 0.32 0.31 0.27 0.31 0.29 0.29 0.32 0.32 0.38 0.33 0.27 0.23 0.19 0.24 0.28 0.24 0.19 0.20 0.19 0.13 0.09 0.10 0.14 0.24 0.18 0.26 0.40 0.50 0.58 0.61 0.65 0.82 0.92
0.39 0.33 0.33 0.37 0.39 0.35 0.21 0.09 0.15 0.23 0.28 0.26 0.28 0.27 0.28 0.32 0.30 0.30 0.29 0.32 0.38 0.38 0.27 0.26 0.22 0.29 0.28 0.27 0.26 0.21 0.18 0.19 0.13 0.15 0.13 0.16 0.20 0.26 0.35 0.42 0.51 0.57 0.62 0.74 0.82
0.34 0.29 0.29 0.40 0.43 0.34 0.16 0.14 0.21 0.34 0.34 0.31 0.22 0.29 0.27 0.30 0.30 0.28 0.30 0.38 0.37 0.44 0.43 0.34 0.26 0.31 0.31 0.30 0.28 0.22 0.23 0.16 0.16 0.10 0.09 0.12 0.14 0.15 0.23 0.32 0.47 0.54 0.56 0.65 0.77
0.35 0.23 0.34 0.42 0.39 0.28 0.15 0.18 0.24 0.34 0.36 0.32 0.29 0.27 0.30 0.32 0.33 0.30 0.33 0.39 0.42 0.44 0.47 0.39 0.32 0.29 0.32 0.26 0.24 0.23 0.21 0.21 0.19 0.14 0.10 0.09 0.10 0.17 0.19 0.25 0.35 0.49 0.56 0.63 0.72
0.36 0.20 0.41 0.42 0.22 0.25 0.20 0.24 0.29 0.29 0.38 0.35 0.36 0.35 0.32 0.36 0.33 0.35 0.34 0.40 0.46 0.49 0.40 0.45 0.34 0.28 0.28 0.34 0.34 0.30 0.24 0.23 0.16 0.15 0.14 0.13 0.12 0.18 0.19 0.21 0.27 0.39 0.51 0.65 0.72
0.33 0.32 0.45 0.42 0.20 0.23 0.28 0.27 0.29 0.31 0.36 0.35 0.34 0.38 0.40 0.34 0.33 0.39 0.43 0.47 0.48 0.46 0.43 0.45 0.36 0.28 0.28 0.31 0.33 0.29 0.30 0.29 0.25 0.22 0.17 0.12 0.13 0.19 0.19 0.19 0.20 0.23 0.37 0.48 0.60
0.39 0.27 0.33 0.37 0.36 0.29 0.26 0.25 0.25 0.35 0.36 0.44 0.40 0.39 0.36 0.33 0.36 0.38 0.41 0.48 0.46 0.46 0.48 0.48 0.38 0.33 0.26 0.29 0.34 0.28 0.30 0.31 0.27 0.21 0.18 0.17 0.17 0.20 0.19 0.19 0.20 0.21 0.24 0.34 0.47
0.44 0.34 0.38 0.24 0.29 0.31 0.32 0.30 0.27 0.27 0.33 0.38 0.42 0.40 0.34 0.28 0.30 0.29 0.39 0.43 0.45 0.46 0.44 0.42 0.34 0.37 0.37 0.38 0.36 0.34 0.31 0.31 0.28 0.27 0.21 0.20 0.19 0.23 0.23 0.21 0.22 0.23 0.24 0.29 0.34
0.40 0.38 0.43 0.36 0.36 0.34 0.32 0.29 0.29 0.30 0.30 0.28 0.34 0.40 0.42 0.36 0.33 0.29 0.32 0.39 0.40 0.44 0.41 0.42 0.34 0.35 0.32 0.37 0.35 0.33 0.33 0.32 0.30 0.28 0.27 0.26 0.24 0.32 0.32 0.33 0.28 0.25 0.24 0.23 0.28
0.57 0.58 0.47 0.38 0.35 0.31 0.31 0.31 0.31 0.34 0.34 0.38 0.40 0.37 0.35 0.41 0.42 0.40 0.40 0.38 0.41 0.40 0.38 0.36 0.33 0.31 0.27 0.34 0.33 0.28 0.30 0.31 0.31 0.32 0.29 0.22 0.26 0.30 0.28 0.29 0.28 0.28 0.29 0.27 0.27

GFSSW_prec_pwat_036.txt.gz
Precipitable_Water
0.88 0.86 0.83 0.81 0.77 0.72 0.68 0.61 0.57 0.54 0.52 0.51 0.50 0.51 0.48 0.48 0.44 0.43 0.25 0.29 0.31 0.64 0.96 1.03 1.21 1.30 1.42 1.39 1.53 1.49 0.98 0.85 0.84 0.93 0.93 1.12 1.03 1.12 1.18 1.09 1.22 1.33 1.32 1.44 1.60
0.87 0.85 0.84 0.82 0.79 0.77 0.75 0.71 0.66 0.59 0.55 0.53 0.51 0.50 0.50 0.48 0.35 0.27 0.33 0.34 0.31 0.60 0.72 0.87 0.97 1.10 1.09 1.19 1.30 1.17 0.97 0.91 1.03 0.96 0.93 1.07 1.07 1.01 0.98 0.99 1.05 1.17 1.37 1.48 1.51
0.81 0.80 0.78 0.77 0.77 0.77 0.76 0.74 0.70 0.67 0.62 0.57 0.54 0.51 0.50 0.48 0.27 0.22 0.39 0.39 0.34 0.53 0.57 0.87 0.97 0.98 0.87 1.08 1.13 1.09 0.96 1.05 0.95 1.00 1.09 1.07 1.11 1.17 0.95 0.83 1.01 1.04 1.14 1.32 1.37
0.75 0.73 0.71 0.71 0.71 0.72 0.73 0.72 0.72 0.71 0.69 0.66 0.60 0.55 0.49 0.40 0.15 0.32 0.53 0.51 0.40 0.52 0.55 0.69 0.87 0.79 0.77 0.87 1.09 0.93 1.09 1.09 1.01 1.04 1.05 1.08 1.18 1.11 1.06 0.91 1.02 1.16 1.21 1.25 1.25
0.63 0.62 0.61 0.60 0.61 0.64 0.67 0.69 0.71 0.72 0.72 0.71 0.69 0.62 0.47 0.25 0.19 0.33 0.54 0.49 0.51 0.53 0.49 0.56 0.75 0.78 0.66 0.89 1.02 0.95 1.02 1.01 1.02 1.01 1.01 1.04 1.00 1.02 1.11 1.11 1.12 1.06 1.12 1.18 1.24
0.57 0.58 0.59 0.58 0.55 0.57 0.59 0.62 0.68 0.71 0.76 0.75 0.74 0.71 0.44 0.20 0.23 0.24 0.49 0.51 0.50 0.54 0.51 0.60 0.68 0.82 0.74 0.81 0.89 0.98 0.99 0.95 0.88 0.84 0.88 0.86 0.87 0.95 1.05 1.22 1.16 1.14 0.97 1.11 1.16
0.48 0.49 0.50 0.50 0.50 0.54 0.55 0.57 0.63 0.81 0.88 0.82 0.79 0.70 0.48 0.30 0.26 0.25 0.48 0.50 0.66 0.60 0.47 0.62 0.74 0.76 0.82 0.72 0.81 0.90 0.69 0.74 0.75 0.74 0.77 0.79 0.68 0.72 0.99 1.20 1.17 1.18 1.18 0.99 1.09
0.42 0.42 0.42 0.42 0.42 0.45 0.49 0.55 0.66 0.85 0.89 0.88 0.87 0.71 0.43 0.46 0.39 0.37 0.51 0.53 0.76 0.71 0.60 0.71 0.77 0.77 0.68 0.63 0.59 0.62 0.59 0.54 0.70 0.69 0.72 0.67 0.55 0.73 0.95 1.05 1.11 1.17 1.20 1.13 0.99
0.41 0.40 0.37 0.37 0.36 0.36 0.40 0.52 0.75 0.83 0.87 0.90 0.79 0.66 0.42 0.52 0.36 0.31 0.53 0.45 0.68 0.68 0.67 0.72 0.68 0.62 0.66 0.44 0.44 0.48 0.44 0.53 0.60 0.70 0.66 0.64 0.60 0.76 0.89 1.01 1.06 1.14 1.16 1.16 1.04
0.41 0.39 0.36 0.35 0.34 0.33 0.35 0.50 0.68 0.76 0.84 0.91 0.79 0.56 0.52 0.39 0.42 0.32 0.41 0.46 0.62 0.53 0.51 0.52 0.41 0.38 0.49 0.44 0.30 0.40 0.42 0.47 0.56 0.61 0.62 0.60 0.62 0.69 0.90 0.99 1.02 1.11 1.17 1.14 1.14
0.41 0.38 0.36 0.34 0.34 0.32 0.30 0.35 0.36 0.43 0.42 0.50 0.60 0.51 0.52 0.52 0.53 0.33 0.28 0.53 0.60 0.41 0.22 0.28 0.21 0.17 0.24 0.33 0.39 0.42 0.42 0.43 0.54 0.59 0.53 0.52 0.58 0.63 0.86 0.99 0.98 1.01 1.10 1.13 1.09
0.42 0.39 0.36 0.34 0.33 0.33 0.33 0.25 0.28 0.33 0.21 0.32 0.40 0.53 0.64 0.62 0.46 0.36 0.35 0.34 0.34 0.27 0.25 0.22 0.16 0.19 0.24 0.27 0.29 0.33 0.33 0.38 0.51 0.54 0.51 0.53 0.55 0.64 0.77 0.90 0.97 1.02 1.01 1.11 1.19
0.40 0.37 0.34 0.34 0.33 0.34 0.30 0.31 0.43 0.40 0.22 0.21 0.28 0.33 0.47 0.53 0.44 0.40 0.37 0.33 0.30 0.26 0.21 0.17 0.18 0.22 0.20 0.21 0.22 0.26 0.28 0.36 0.42 0.50 0.51 0.47 0.45 0.52 0.65 0.80 0.93 1.02 1.08 1.16 1.17
0.41 0.38 0.35 0.31 0.31 0.32 0.28 0.36 0.40 0.42 0.16 0.16 0.21 0.29 0.36 0.50 0.41 0.54 0.39 0.35 0.32 0.28 0.26 0.23 0.25 0.21 0.20 0.18 0.19 0.16 0.29 0.36 0.37 0.39 0.35 0.48 0.35 0.48 0.56 0.63 0.73 0.81 0.94 1.04 1.08
0.40 0.37 0.35 0.38 0.31 0.27 0.32 0.38 0.41 0.38 0.08 0.25 0.25 0.35 0.34 0.36 0.42 0.42 0.53 0.37 0.27 0.28 0.28 0.23 0.22 0.21 0.17 0.16 0.20 0.15 0.22 0.28 0.35 0.35 0.37 0.39 0.34 0.41 0.53 0.51 0.64 0.75 0.83 1.00 1.07
0.39 0.37 0.37 0.34 0.35 0.33 0.36 0.38 0.37 0.17 0.09 0.23 0.24 0.26 0.27 0.33 0.37 0.42 0.45 0.38 0.36 0.30 0.29 0.28 0.30 0.24 0.22 0.23 0.21 0.21 0.20 0.21 0.26 0.29 0.25 0.31 0.34 0.32 0.41 0.50 0.59 0.72 0.78 0.90 1.04
0.38 0.37 0.37 0.35 0.24 0.33 0.32 0.30 0.14 0.12 0.22 0.26 0.26 0.29 0.28 0.26 0.33 0.35 0.36 0.35 0.34 0.27 0.24 0.28 0.26 0.29 0.28 0.24 0.26 0.22 0.20 0.14 0.13 0.15 0.16 0.28 0.30 0.30 0.43 0.53 0.59 0.62 0.69 0.81 1.02
0.39 0.38 0.38 0.36 0.34 0.34 0.27 0.19 0.10 0.20 0.27 0.34 0.32 0.30 0.27 0.30 0.29 0.32 0.34 0.33 0.39 0.37 0.31 0.26 0.20 0.26 0.28 0.24 0.24 0.21 0.19 0.13 0.10 0.11 0.14 0.23 0.21 0.26 0.42 0.54 0.59 0.62 0.62 0.78 0.95
0.41 0.35 0.35 0.34 0.36 0.36 0.21 0.10 0.12 0.29 0.35 0.29 0.29 0.28 0.29 0.32 0.31 0.30 0.30 0.33 0.37 0.40 0.31 0.28 0.26 0.31 0.30 0.29 0.27 0.24 0.18 0.19 0.15 0.17 0.15 0.16 0.20 0.28 0.36 0.42 0.52 0.55 0.59 0.62 0.81
0.38 0.32 0.32 0.37 0.38 0.35 0.18 0.14 0.23 0.31 0.33 0.33 0.25 0.33 0.31 0.33 0.31 0.30 0.28 0.38 0.38 0.42 0.46 0.37 0.29 0.33 0.33 0.32 0.29 0.26 0.26 0.17 0.16 0.12 0.11 0.12 0.15 0.19 0.25 0.30 0.42 0.48 0.58 0.60 0.66
0.39 0.28 0.35 0.40 0.39 0.25 0.17 0.16 0.19 0.27 0.31 0.30 0.31 0.30 0.35 0.34 0.36 0.33 0.36 0.40 0.43 0.44 0.50 0.43 0.36 0.33 0.33 0.27 0.24 0.24 0.23 0.22 0.20 0.16 0.12 0.12 0.12 0.21 0.22 0.30 0.34 0.42 0.53 0.63 0.60
0.41 0.23 0.38 0.42 0.26 0.25 0.22 0.23 0.26 0.28 0.34 0.33 0.34 0.33 0.34 0.40 0.38 0.38 0.40 0.44 0.48 0.50 0.42 0.47 0.40 0.33 0.30 0.35 0.33 0.29 0.26 0.24 0.17 0.17 0.17 0.16 0.15 0.22 0.20 0.25 0.35 0.37 0.50 0.62 0.67
0.39 0.34 0.44 0.39 0.21 0.22 0.26 0.26 0.27 0.29 0.31 0.35 0.35 0.37 0.41 0.37 0.37 0.43 0.46 0.48 0.46 0.48 0.48 0.50 0.37 0.32 0.32 0.34 0.35 0.28 0.28 0.27 0.25 0.22 0.19 0.15 0.16 0.26 0.23 0.23 0.32 0.41 0.49 0.59 0.68
0.44 0.31 0.35 0.38 0.36 0.28 0.26 0.25 0.25 0.31 0.30 0.32 0.41 0.43 0.36 0.32 0.41 0.40 0.42 0.46 0.46 0.44 0.48 0.52 0.42 0.35 0.29 0.32 0.35 0.30 0.29 0.28 0.27 0.20 0.19 0.22 0.21 0.24 0.22 0.24 0.25 0.28 0.38 0.49 0.59
0.50 0.38 0.42 0.29 0.31 0.32 0.32 0.28 0.26 0.25 0.31 0.31 0.38 0.40 0.36 0.28 0.32 0.36 0.42 0.43 0.46 0.47 0.45 0.45 0.37 0.41 0.44 0.43 0.39 0.35 0.31 0.30 0.27 0.27 0.21 0.24 0.25 0.27 0.30 0.26 0.28 0.31 0.32 0.41 0.49
0.49 0.44 0.47 0.39 0.39 0.34 0.31 0.30 0.27 0.28 0.29 0.28 0.32 0.35 0.37 0.33 0.37 0.38 0.41 0.41 0.40 0.45 0.43 0.44 0.38 0.40 0.36 0.40 0.38 0.34 0.36 0.33 0.32 0.30 0.30 0.29 0.29 0.36 0.38 0.36 0.30 0.31 0.32 0.32 0.40
0.68 0.64 0.52 0.41 0.38 0.33 0.32 0.30 0.29 0.31 0.33 0.35 0.33 0.32 0.32 0.38 0.46 0.44 0.43 0.46 0.44 0.41 0.40 0.40 0.37 0.34 0.30 0.37 0.36 0.31 0.33 0.34 0.34 0.35 0.34 0.27 0.35 0.40 0.38 0.38 0.34 0.32 0.32 0.30 0.31

GFSSW_prec_pwat_042.txt.gz
Precipitable_Water
0.69 0.68 0.67 0.66 0.66 0.66 0.68 0.70 0.70 0.70 0.68 0.64 0.58 0.52 0.51 0.52 0.49 0.40 0.25 0.29 0.38 0.49 0.53 0.76 0.80 1.18 1.44 1.43 1.41 1.45 1.22 1.03 0.96 1.00 1.00 1.08 1.08 1.39 1.36 1.29 1.40 1.46 1.43 1.62 1.76
0.58 0.57 0.57 0.58 0.59 0.59 0.61 0.63 0.65 0.66 0.67 0.66 0.65 0.60 0.53 0.52 0.39 0.28 0.33 0.39 0.38 0.45 0.44 0.64 0.67 1.11 1.18 1.24 1.28 1.22 1.18 1.21 1.19 1.16 1.12 1.19 1.01 1.01 1.03 1.13 1.26 1.27 1.50 1.62 1.65
0.46 0.46 0.47 0.49 0.51 0.52 0.54 0.56 0.59 0.61 0.62 0.64 0.69 0.66 0.60 0.54 0.29 0.22 0.40 0.37 0.40 0.37 0.39 0.65 0.76 1.04 1.03 1.15 1.16 1.16 1.05 1.17 1.18 1.32 1.23 1.14 0.96 1.08 0.97 0.98 1.21 1.07 1.26 1.43 1.52
0.40 0.40 0.41 0.42 0.44 0.45 0.47 0.49 0.53 0.56 0.59 0.62 0.68 0.70 0.67 0.53 0.19 0.49 0.40 0.41 0.41 0.34 0.32 0.59 0.73 0.78 0.90 0.90 1.09 0.99 1.18 1.18 1.20 1.21 1.19 1.22 1.28 1.06 0.99 1.13 1.26 1.25 1.29 1.34 1.34
0.38 0.37 0.37 0.37 0.38 0.40 0.41 0.43 0.45 0.49 0.57 0.62 0.68 0.78 0.64 0.42 0.26 0.42 0.42 0.46 0.41 0.30 0.28 0.40 0.67 0.74 0.73 0.89 1.00 0.93 1.09 1.29 1.36 1.13 1.11 1.25 1.17 1.13 1.11 1.25 1.27 1.22 1.25 1.25 1.26
0.38 0.38 0.37 0.36 0.35 0.35 0.36 0.38 0.39 0.44 0.59 0.70 0.79 0.83 0.56 0.35 0.51 0.43 0.44 0.45 0.34 0.30 0.30 0.30 0.58 0.78 0.81 0.82 0.86 0.96 0.97 1.08 1.24 0.98 1.09 0.98 1.09 0.98 1.09 1.15 0.97 1.02 1.14 1.20 1.26
0.38 0.37 0.35 0.35 0.34 0.33 0.33 0.34 0.36 0.46 0.60 0.69 0.81 0.77 0.54 0.43 0.54 0.36 0.42 0.44 0.40 0.33 0.26 0.29 0.47 0.68 0.80 0.78 0.92 0.89 0.88 0.95 1.17 0.91 0.89 0.87 1.00 0.94 1.34 1.36 1.03 1.00 1.03 1.13 1.22
0.39 0.37 0.34 0.32 0.31 0.29 0.30 0.34 0.36 0.47 0.60 0.62 0.76 0.71 0.48 0.70 0.64 0.46 0.29 0.32 0.42 0.37 0.32 0.39 0.37 0.56 0.70 0.84 0.83 0.75 0.83 0.72 0.87 0.93 0.85 0.74 0.66 0.98 1.17 1.20 1.03 1.10 1.08 1.01 1.10
0.40 0.38 0.35 0.33 0.30 0.32 0.34 0.37 0.43 0.52 0.65 0.60 0.60 0.58 0.47 0.73 0.60 0.58 0.44 0.26 0.46 0.45 0.44 0.46 0.40 0.42 0.57 0.66 0.65 0.67 0.58 0.69 0.77 0.88 0.83 0.69 0.62 0.82 1.17 1.20 1.09 1.06 1.13 1.09 1.02
0.39 0.36 0.34 0.31 0.30 0.35 0.37 0.39 0.46 0.57 0.76 0.65 0.64 0.46 0.52 0.52 0.60 0.62 0.57 0.38 0.43 0.47 0.47 0.44 0.42 0.35 0.44 0.55 0.42 0.56 0.55 0.65 0.67 0.71 0.71 0.68 0.63 0.84 0.89 1.18 1.28 1.07 1.16 1.17 1.12
0.36 0.34 0.31 0.31 0.30 0.36 0.41 0.30 0.21 0.39 0.34 0.40 0.50 0.34 0.48 0.63 0.58 0.53 0.56 0.42 0.46 0.47 0.39 0.47 0.38 0.28 0.34 0.50 0.59 0.61 0.54 0.48 0.65 0.76 0.70 0.65 0.65 0.74 0.88 0.97 1.30 1.15 1.33 1.11 1.15
0.39 0.36 0.32 0.29 0.31 0.36 0.40 0.24 0.21 0.26 0.19 0.23 0.24 0.33 0.41 0.53 0.48 0.48 0.51 0.38 0.41 0.37 0.49 0.45 0.30 0.37 0.44 0.50 0.54 0.55 0.49 0.42 0.57 0.68 0.72 0.64 0.63 0.66 0.79 0.90 1.22 1.10 1.42 1.12 1.20
0.40 0.36 0.32 0.29 0.32 0.35 0.28 0.22 0.25 0.28 0.19 0.17 0.16 0.17 0.18 0.36 0.35 0.47 0.44 0.44 0.43 0.42 0.45 0.35 0.34 0.45 0.44 0.44 0.41 0.49 0.46 0.43 0.49 0.66 0.80 0.71 0.60 0.64 0.77 0.88 0.98 1.23 1.16 1.19 1.20
0.40 0.37 0.33 0.33 0.27 0.35 0.23 0.22 0.24 0.27 0.13 0.12 0.16 0.19 0.19 0.19 0.26 0.50 0.42 0.54 0.46 0.39 0.48 0.42 0.48 0.40 0.39 0.39 0.37 0.38 0.51 0.50 0.53 0.52 0.49 0.58 0.47 0.56 0.58 0.71 0.88 1.00 1.12 1.21 1.18
0.41 0.38 0.37 0.38 0.32 0.31 0.22 0.24 0.23 0.26 0.07 0.24 0.26 0.37 0.28 0.18 0.27 0.32 0.50 0.50 0.42 0.44 0.51 0.39 0.39 0.36 0.36 0.34 0.36 0.28 0.38 0.48 0.52 0.47 0.51 0.51 0.46 0.48 0.56 0.61 0.77 0.92 0.95 1.36 1.23
0.44 0.42 0.44 0.38 0.41 0.33 0.26 0.24 0.27 0.18 0.08 0.35 0.40 0.36 0.33 0.27 0.23 0.37 0.44 0.44 0.52 0.46 0.55 0.50 0.48 0.37 0.29 0.33 0.29 0.29 0.36 0.36 0.37 0.40 0.31 0.40 0.47 0.46 0.46 0.53 0.61 0.82 1.02 1.04 1.20
0.45 0.45 0.48 0.47 0.32 0.29 0.28 0.27 0.16 0.13 0.19 0.28 0.33 0.34 0.32 0.34 0.30 0.27 0.39 0.39 0.28 0.31 0.41 0.49 0.47 0.37 0.30 0.26 0.27 0.25 0.24 0.20 0.19 0.21 0.22 0.33 0.37 0.41 0.53 0.61 0.65 0.72 0.85 1.07 1.17
0.48 0.48 0.52 0.49 0.37 0.30 0.28 0.23 0.14 0.15 0.19 0.29 0.30 0.31 0.28 0.35 0.38 0.34 0.34 0.37 0.32 0.33 0.38 0.31 0.29 0.39 0.30 0.25 0.23 0.21 0.19 0.16 0.13 0.16 0.20 0.27 0.25 0.30 0.48 0.56 0.62 0.73 0.80 0.88 1.03
0.52 0.49 0.50 0.46 0.38 0.34 0.28 0.20 0.16 0.16 0.18 0.17 0.21 0.25 0.31 0.39 0.42 0.45 0.35 0.35 0.38 0.31 0.33 0.31 0.30 0.44 0.37 0.31 0.30 0.23 0.18 0.22 0.19 0.21 0.19 0.22 0.26 0.32 0.42 0.47 0.54 0.58 0.71 0.79 0.91
0.48 0.47 0.50 0.51 0.42 0.40 0.30 0.21 0.21 0.23 0.21 0.17 0.15 0.22 0.26 0.32 0.35 0.46 0.42 0.37 0.40 0.35 0.39 0.37 0.33 0.37 0.38 0.38 0.31 0.27 0.28 0.18 0.19 0.15 0.15 0.18 0.21 0.22 0.27 0.39 0.47 0.53 0.61 0.71 0.85
0.48 0.38 0.45 0.56 0.45 0.39 0.29 0.24 0.26 0.28 0.21 0.17 0.16 0.20 0.26 0.32 0.41 0.43 0.47 0.54 0.53 0.48 0.44 0.40 0.38 0.36 0.40 0.33 0.28 0.25 0.26 0.24 0.21 0.18 0.17 0.20 0.24 0.28 0.31 0.32 0.41 0.46 0.55 0.64 0.82
0.46 0.35 0.54 0.51 0.36 0.34 0.28 0.31 0.32 0.29 0.26 0.24 0.23 0.22 0.32 0.43 0.42 0.47 0.52 0.62 0.69 0.52 0.45 0.47 0.37 0.33 0.39 0.40 0.39 0.33 0.26 0.29 0.22 0.18 0.20 0.24 0.27 0.36 0.35 0.35 0.37 0.45 0.51 0.61 0.73
0.36 0.44 0.59 0.55 0.33 0.32 0.34 0.32 0.29 0.29 0.31 0.28 0.26 0.23 0.33 0.36 0.38 0.50 0.57 0.73 0.68 0.53 0.52 0.56 0.40 0.30 0.38 0.46 0.40 0.32 0.31 0.29 0.33 0.26 0.21 0.20 0.24 0.39 0.37 0.39 0.42 0.41 0.51 0.57 0.68
0.47 0.44 0.52 0.52 0.49 0.41 0.35 0.30 0.26 0.28 0.33 0.37 0.36 0.28 0.29 0.37 0.42 0.45 0.51 0.61 0.67 0.58 0.54 0.56 0.45 0.41 0.34 0.38 0.41 0.33 0.33 0.32 0.29 0.26 0.23 0.25 0.31 0.37 0.36 0.37 0.42 0.41 0.49 0.59 0.66
0.59 0.50 0.52 0.37 0.40 0.42 0.41 0.33 0.30 0.28 0.37 0.36 0.28 0.30 0.36 0.30 0.37 0.41 0.49 0.52 0.65 0.62 0.53 0.54 0.44 0.48 0.46 0.48 0.50 0.38 0.34 0.33 0.27 0.31 0.26 0.29 0.30 0.38 0.39 0.39 0.44 0.45 0.53 0.60 0.69
0.56 0.51 0.54 0.46 0.49 0.43 0.41 0.41 0.34 0.30 0.29 0.25 0.24 0.32 0.39 0.31 0.37 0.35 0.43 0.48 0.56 0.55 0.49 0.53 0.43 0.51 0.47 0.51 0.56 0.49 0.39 0.36 0.34 0.31 0.34 0.33 0.36 0.45 0.46 0.44 0.45 0.51 0.57 0.61 0.69
0.72 0.70 0.57 0.47 0.45 0.43 0.41 0.39 0.35 0.35 0.36 0.32 0.35 0.30 0.26 0.31 0.37 0.40 0.42 0.45 0.57 0.51 0.47 0.48 0.48 0.47 0.40 0.54 0.52 0.46 0.45 0.40 0.38 0.39 0.34 0.32 0.38 0.47 0.46 0.45 0.45 0.45 0.50 0.55 0.59

GFSSW_prec_pwat_045.txt.gz
Precipitable_Water
0.52 0.52 0.53 0.53 0.53 0.53 0.54 0.55 0.55 0.57 0.62 0.63 0.64 0.62 0.58 0.53 0.50 0.41 0.27 0.28 0.33 0.48 0.72 0.77 0.69 0.82 1.32 1.43 1.66 1.68 1.36 1.19 1.12 1.10 1.12 1.40 1.18 1.40 1.55 1.24 1.41 1.48 1.46 1.61 1.66
0.44 0.44 0.45 0.46 0.48 0.49 0.50 0.52 0.54 0.54 0.55 0.59 0.61 0.65 0.66 0.61 0.41 0.27 0.32 0.37 0.34 0.46 0.45 0.46 0.62 0.71 1.02 1.23 1.47 1.32 1.10 1.13 1.26 1.27 1.24 1.36 1.31 1.22 1.17 1.16 1.28 1.34 1.56 1.62 1.56
0.39 0.39 0.39 0.40 0.41 0.42 0.43 0.46 0.50 0.51 0.52 0.56 0.61 0.65 0.67 0.66 0.38 0.20 0.37 0.36 0.35 0.42 0.41 0.41 0.58 0.69 0.89 1.19 1.23 1.18 1.09 1.19 1.27 1.36 1.36 1.25 1.23 1.30 1.14 1.01 1.08 1.08 1.29 1.44 1.49
0.39 0.38 0.37 0.37 0.36 0.36 0.38 0.40 0.44 0.46 0.47 0.55 0.61 0.64 0.71 0.61 0.20 0.42 0.42 0.44 0.38 0.41 0.34 0.37 0.52 0.62 0.81 0.94 1.19 1.04 1.24 1.33 1.28 1.35 1.38 1.18 1.25 1.17 1.21 1.19 1.24 1.18 1.27 1.31 1.35
0.39 0.38 0.37 0.35 0.35 0.34 0.35 0.35 0.38 0.42 0.45 0.56 0.66 0.68 0.64 0.43 0.37 0.49 0.48 0.42 0.45 0.34 0.25 0.27 0.45 0.58 0.66 0.90 1.04 1.00 1.12 1.25 1.24 1.26 1.32 1.21 1.07 1.21 1.26 1.46 1.37 1.18 1.27 1.23 1.30
0.39 0.38 0.36 0.34 0.32 0.32 0.35 0.37 0.39 0.40 0.42 0.60 0.66 0.73 0.54 0.33 0.58 0.55 0.51 0.46 0.37 0.31 0.24 0.21 0.42 0.63 0.67 0.78 0.90 0.99 1.03 1.17 1.28 1.13 1.19 1.00 0.98 1.14 1.33 1.51 1.18 1.04 1.08 1.20 1.21
0.40 0.39 0.37 0.34 0.31 0.32 0.35 0.39 0.42 0.44 0.44 0.58 0.66 0.62 0.48 0.41 0.59 0.57 0.54 0.44 0.37 0.30 0.23 0.22 0.35 0.57 0.70 0.71 0.94 0.97 0.89 1.10 1.12 1.20 1.18 1.25 0.93 0.97 1.28 1.36 1.21 0.98 1.00 1.07 1.13
0.38 0.36 0.35 0.33 0.30 0.32 0.38 0.41 0.42 0.45 0.49 0.63 0.65 0.55 0.32 0.49 0.68 0.58 0.54 0.52 0.42 0.36 0.29 0.30 0.33 0.45 0.59 0.76 0.77 0.78 0.86 0.80 0.93 1.20 1.18 1.11 0.76 1.02 1.27 1.29 1.18 1.09 1.04 0.97 1.09
0.37 0.34 0.33 0.31 0.28 0.32 0.38 0.38 0.37 0.43 0.59 0.69 0.59 0.49 0.22 0.57 0.56 0.62 0.54 0.46 0.44 0.39 0.35 0.31 0.30 0.33 0.47 0.54 0.55 0.64 0.59 0.65 0.78 0.97 1.00 0.93 0.72 1.01 1.14 1.24 1.18 1.11 1.10 1.06 1.02
0.39 0.37 0.34 0.32 0.27 0.32 0.39 0.38 0.34 0.61 0.68 0.71 0.64 0.39 0.32 0.27 0.58 0.66 0.55 0.43 0.33 0.39 0.34 0.28 0.30 0.27 0.31 0.41 0.32 0.47 0.55 0.61 0.64 0.82 0.95 0.77 0.68 0.92 1.11 1.15 1.18 1.27 1.19 1.24 1.18
0.41 0.38 0.35 0.31 0.27 0.31 0.37 0.30 0.16 0.22 0.27 0.16 0.19 0.36 0.37 0.55 0.56 0.61 0.64 0.52 0.34 0.42 0.29 0.33 0.26 0.19 0.19 0.35 0.43 0.57 0.57 0.56 0.64 0.85 0.77 0.67 0.69 0.86 1.05 1.19 1.20 1.25 1.30 1.29 1.15
0.43 0.39 0.36 0.32 0.27 0.31 0.41 0.20 0.17 0.20 0.12 0.14 0.15 0.17 0.24 0.48 0.36 0.43 0.63 0.50 0.37 0.30 0.36 0.35 0.23 0.26 0.30 0.33 0.40 0.50 0.56 0.58 0.60 0.71 0.83 0.78 0.66 0.74 0.99 1.07 1.10 1.28 1.35 1.40 1.29
0.42 0.42 0.39 0.37 0.28 0.32 0.31 0.20 0.21 0.22 0.14 0.19 0.19 0.18 0.16 0.25 0.33 0.36 0.45 0.50 0.39 0.36 0.34 0.30 0.29 0.37 0.36 0.30 0.33 0.42 0.49 0.53 0.51 0.54 0.64 0.72 0.64 0.68 0.90 1.07 1.15 1.24 1.32 1.46 1.29
0.41 0.41 0.41 0.41 0.26 0.30 0.25 0.25 0.24 0.25 0.17 0.25 0.26 0.27 0.30 0.21 0.20 0.40 0.46 0.40 0.45 0.36 0.40 0.37 0.44 0.44 0.37 0.34 0.36 0.33 0.49 0.53 0.53 0.52 0.49 0.74 0.52 0.67 0.72 0.84 0.99 1.23 1.31 1.18 1.32
0.43 0.42 0.42 0.42 0.33 0.31 0.28 0.28 0.29 0.28 0.07 0.32 0.32 0.41 0.33 0.22 0.16 0.19 0.49 0.39 0.33 0.39 0.45 0.35 0.42 0.43 0.39 0.33 0.41 0.38 0.44 0.48 0.52 0.53 0.56 0.61 0.55 0.59 0.66 0.69 0.88 1.01 1.18 1.19 1.35
0.44 0.44 0.46 0.35 0.38 0.35 0.33 0.31 0.29 0.17 0.10 0.18 0.28 0.29 0.29 0.27 0.29 0.35 0.30 0.49 0.36 0.38 0.50 0.45 0.62 0.52 0.44 0.44 0.46 0.51 0.44 0.43 0.52 0.55 0.43 0.50 0.55 0.54 0.58 0.59 0.76 0.93 1.09 1.19 1.29
0.41 0.45 0.44 0.45 0.28 0.36 0.34 0.29 0.18 0.13 0.16 0.14 0.19 0.25 0.28 0.27 0.29 0.36 0.36 0.37 0.32 0.27 0.38 0.46 0.45 0.59 0.51 0.44 0.46 0.46 0.40 0.27 0.28 0.34 0.34 0.48 0.45 0.50 0.59 0.62 0.69 0.82 0.97 1.13 1.17
0.38 0.48 0.47 0.50 0.49 0.46 0.31 0.26 0.18 0.20 0.17 0.18 0.16 0.16 0.24 0.29 0.32 0.35 0.34 0.32 0.39 0.33 0.38 0.36 0.34 0.48 0.57 0.42 0.38 0.34 0.32 0.21 0.16 0.23 0.27 0.40 0.32 0.38 0.53 0.58 0.67 0.80 1.01 1.12 1.09
0.35 0.45 0.48 0.53 0.55 0.47 0.32 0.23 0.24 0.22 0.22 0.19 0.15 0.11 0.13 0.25 0.32 0.36 0.36 0.37 0.39 0.48 0.31 0.34 0.34 0.60 0.57 0.44 0.37 0.30 0.23 0.29 0.25 0.26 0.23 0.26 0.31 0.39 0.45 0.50 0.53 0.66 0.92 0.96 1.05
0.32 0.46 0.46 0.51 0.53 0.42 0.32 0.28 0.31 0.31 0.27 0.24 0.16 0.16 0.13 0.20 0.28 0.35 0.39 0.48 0.47 0.64 0.60 0.37 0.34 0.53 0.55 0.56 0.38 0.29 0.31 0.21 0.22 0.16 0.15 0.18 0.19 0.17 0.25 0.38 0.47 0.52 0.62 0.84 1.00
0.33 0.42 0.53 0.58 0.50 0.38 0.28 0.30 0.34 0.35 0.32 0.28 0.22 0.18 0.17 0.20 0.29 0.35 0.41 0.50 0.64 0.63 0.63 0.50 0.38 0.36 0.48 0.45 0.35 0.26 0.26 0.24 0.21 0.21 0.17 0.17 0.17 0.27 0.29 0.29 0.36 0.48 0.53 0.75 0.94
0.38 0.39 0.63 0.61 0.37 0.36 0.33 0.36 0.36 0.32 0.31 0.33 0.31 0.26 0.21 0.21 0.23 0.30 0.38 0.47 0.66 0.69 0.52 0.56 0.44 0.34 0.36 0.42 0.44 0.39 0.27 0.27 0.19 0.16 0.19 0.18 0.19 0.35 0.37 0.35 0.34 0.46 0.52 0.63 0.88
0.39 0.52 0.62 0.53 0.31 0.35 0.41 0.40 0.36 0.30 0.29 0.31 0.28 0.29 0.27 0.26 0.26 0.38 0.47 0.59 0.65 0.66 0.56 0.59 0.43 0.34 0.34 0.38 0.44 0.38 0.33 0.30 0.30 0.25 0.18 0.16 0.22 0.35 0.37 0.38 0.36 0.39 0.49 0.59 0.83
0.50 0.42 0.51 0.51 0.47 0.40 0.38 0.36 0.34 0.40 0.40 0.36 0.29 0.30 0.31 0.27 0.31 0.40 0.41 0.56 0.64 0.65 0.68 0.66 0.44 0.40 0.34 0.33 0.39 0.36 0.35 0.32 0.29 0.24 0.20 0.19 0.27 0.35 0.41 0.39 0.38 0.43 0.50 0.50 0.67
0.52 0.47 0.54 0.40 0.40 0.43 0.44 0.39 0.36 0.34 0.43 0.37 0.33 0.32 0.34 0.26 0.28 0.34 0.44 0.48 0.54 0.64 0.66 0.57 0.38 0.43 0.46 0.45 0.43 0.43 0.40 0.36 0.29 0.28 0.27 0.23 0.29 0.36 0.44 0.46 0.43 0.44 0.45 0.53 0.59
0.46 0.49 0.58 0.53 0.50 0.44 0.43 0.40 0.38 0.38 0.37 0.30 0.28 0.30 0.30 0.26 0.32 0.35 0.38 0.42 0.47 0.58 0.61 0.56 0.44 0.48 0.44 0.47 0.48 0.50 0.48 0.39 0.35 0.30 0.30 0.32 0.28 0.42 0.45 0.51 0.52 0.53 0.52 0.57 0.67
0.64 0.69 0.61 0.53 0.50 0.45 0.43 0.46 0.44 0.43 0.41 0.41 0.35 0.29 0.26 0.31 0.38 0.37 0.40 0.42 0.44 0.49 0.54 0.50 0.47 0.42 0.36 0.49 0.55 0.48 0.49 0.42 0.39 0.37 0.32 0.28 0.35 0.48 0.46 0.49 0.48 0.53 0.54 0.57 0.64

GFSSW_prec_pwat_048.txt.gz
Precipitable_Water
0.44 0.43 0.43 0.44 0.45 0.47 0.49 0.50 0.50 0.50 0.54 0.55 0.57 0.62 0.65 0.65 0.56 0.41 0.25 0.31 0.35 0.69 0.87 0.72 0.82 0.98 1.27 1.37 1.73 1.66 1.16 0.97 1.18 1.23 1.35 1.62 1.43 1.58 1.54 1.29 1.38 1.44 1.44 1.53 1.64
0.41 0.41 0.40 0.40 0.40 0.41 0.43 0.45 0.48 0.49 0.48 0.50 0.55 0.59 0.65 0.70 0.53 0.34 0.33 0.35 0.35 0.40 0.59 0.53 0.54 0.79 1.02 1.15 1.45 1.37 1.15 1.12 1.34 1.32 1.30 1.45 1.47 1.24 1.20 1.20 1.27 1.34 1.44 1.56 1.58
0.40 0.38 0.38 0.38 0.37 0.37 0.39 0.41 0.42 0.45 0.47 0.48 0.52 0.60 0.63 0.67 0.46 0.36 0.39 0.38 0.38 0.42 0.45 0.58 0.57 0.59 0.75 1.08 1.33 1.32 1.07 1.24 1.26 1.36 1.40 1.32 1.37 1.46 1.16 1.01 1.07 1.07 1.26 1.35 1.33
0.39 0.37 0.36 0.35 0.34 0.34 0.37 0.40 0.42 0.43 0.46 0.49 0.55 0.60 0.62 0.55 0.27 0.39 0.47 0.44 0.41 0.42 0.36 0.38 0.44 0.50 0.65 0.90 1.18 1.04 1.24 1.26 1.26 1.29 1.25 1.22 1.32 1.32 1.25 1.10 1.12 1.15 1.27 1.21 1.18
0.38 0.37 0.36 0.34 0.32 0.32 0.35 0.40 0.42 0.44 0.46 0.47 0.58 0.63 0.55 0.37 0.38 0.55 0.56 0.53 0.44 0.38 0.27 0.28 0.35 0.44 0.56 0.78 1.08 1.05 1.14 1.27 1.34 1.30 1.19 1.23 1.21 1.32 1.27 1.41 1.32 1.25 1.24 1.19 1.21
0.38 0.36 0.35 0.33 0.32 0.31 0.35 0.40 0.42 0.43 0.48 0.51 0.58 0.61 0.44 0.25 0.50 0.58 0.58 0.57 0.39 0.34 0.27 0.26 0.28 0.49 0.55 0.71 0.93 1.04 1.13 1.15 1.29 1.23 1.21 1.11 1.12 1.30 1.34 1.47 1.21 1.07 1.14 1.22 1.23
0.38 0.35 0.33 0.32 0.31 0.30 0.34 0.38 0.38 0.38 0.45 0.49 0.64 0.59 0.37 0.22 0.47 0.63 0.64 0.56 0.45 0.33 0.26 0.26 0.24 0.44 0.59 0.66 0.93 1.01 0.88 1.01 1.17 1.24 1.15 1.22 0.97 1.08 1.39 1.40 1.23 1.06 1.03 1.14 1.22
0.38 0.37 0.35 0.32 0.28 0.29 0.34 0.35 0.35 0.41 0.54 0.58 0.72 0.60 0.23 0.31 0.48 0.54 0.61 0.56 0.58 0.42 0.30 0.30 0.25 0.37 0.53 0.65 0.72 0.78 0.80 0.66 0.96 1.16 1.25 1.17 0.88 1.14 1.39 1.32 1.28 1.12 1.05 1.00 1.10
0.44 0.42 0.39 0.36 0.31 0.30 0.35 0.37 0.32 0.45 0.62 0.59 0.59 0.50 0.20 0.43 0.38 0.53 0.61 0.56 0.53 0.45 0.35 0.31 0.28 0.26 0.47 0.48 0.51 0.67 0.55 0.60 0.78 1.03 1.06 1.14 0.92 1.07 1.33 1.29 1.21 1.07 1.06 1.04 1.00
0.43 0.43 0.42 0.38 0.33 0.31 0.37 0.34 0.27 0.43 0.63 0.55 0.62 0.36 0.29 0.28 0.45 0.46 0.64 0.62 0.53 0.41 0.36 0.30 0.26 0.20 0.31 0.38 0.31 0.46 0.53 0.62 0.66 0.80 0.98 1.01 0.92 1.04 1.20 1.25 1.21 1.14 1.12 1.13 1.09
0.42 0.41 0.40 0.40 0.34 0.33 0.36 0.23 0.15 0.13 0.21 0.18 0.17 0.19 0.18 0.30 0.38 0.48 0.53 0.56 0.58 0.43 0.27 0.30 0.19 0.13 0.17 0.32 0.39 0.48 0.54 0.56 0.68 0.81 0.91 0.83 0.89 0.94 1.11 1.21 1.19 1.18 1.22 1.18 1.11
0.39 0.39 0.41 0.40 0.34 0.37 0.36 0.22 0.20 0.23 0.13 0.26 0.24 0.23 0.21 0.27 0.26 0.42 0.53 0.40 0.43 0.37 0.35 0.29 0.19 0.18 0.23 0.31 0.33 0.42 0.47 0.51 0.61 0.74 0.79 0.82 0.81 0.96 1.11 1.07 1.09 1.17 1.28 1.28 1.24
0.37 0.38 0.39 0.40 0.33 0.28 0.27 0.22 0.29 0.28 0.16 0.25 0.29 0.27 0.23 0.24 0.21 0.37 0.48 0.41 0.32 0.34 0.36 0.30 0.29 0.30 0.24 0.25 0.26 0.34 0.43 0.45 0.46 0.67 0.74 0.74 0.75 0.91 1.11 1.15 1.16 1.22 1.30 1.28 1.24
0.35 0.34 0.37 0.39 0.22 0.29 0.22 0.26 0.34 0.29 0.12 0.22 0.24 0.27 0.26 0.26 0.18 0.38 0.41 0.46 0.42 0.31 0.36 0.38 0.39 0.39 0.26 0.22 0.24 0.23 0.41 0.46 0.47 0.60 0.56 0.66 0.54 0.75 0.89 0.97 1.08 1.11 1.19 1.24 1.26
0.35 0.34 0.38 0.41 0.28 0.23 0.21 0.32 0.33 0.26 0.06 0.19 0.18 0.29 0.27 0.24 0.22 0.27 0.44 0.41 0.37 0.38 0.35 0.31 0.38 0.36 0.34 0.23 0.28 0.20 0.39 0.48 0.49 0.56 0.57 0.58 0.52 0.60 0.83 0.89 0.93 0.99 1.06 1.10 1.28
0.36 0.32 0.44 0.39 0.37 0.34 0.34 0.34 0.27 0.15 0.08 0.15 0.17 0.16 0.20 0.25 0.26 0.27 0.36 0.42 0.45 0.40 0.39 0.37 0.47 0.45 0.38 0.46 0.40 0.35 0.31 0.47 0.50 0.54 0.43 0.52 0.54 0.57 0.73 0.84 0.90 0.92 0.97 1.05 1.20
0.34 0.33 0.45 0.46 0.31 0.42 0.43 0.29 0.16 0.11 0.18 0.16 0.16 0.16 0.15 0.23 0.28 0.26 0.30 0.33 0.38 0.33 0.26 0.34 0.39 0.47 0.55 0.46 0.52 0.45 0.36 0.27 0.33 0.39 0.36 0.51 0.51 0.53 0.75 0.87 0.85 0.89 0.97 1.04 1.12
0.34 0.44 0.52 0.50 0.51 0.50 0.42 0.24 0.14 0.20 0.19 0.23 0.20 0.19 0.16 0.17 0.23 0.29 0.29 0.32 0.45 0.48 0.38 0.23 0.26 0.39 0.51 0.52 0.46 0.43 0.41 0.30 0.25 0.29 0.35 0.40 0.39 0.47 0.64 0.74 0.88 0.95 0.95 1.05 1.06
0.35 0.48 0.49 0.56 0.57 0.54 0.34 0.19 0.21 0.24 0.24 0.22 0.21 0.18 0.18 0.17 0.17 0.30 0.29 0.38 0.46 0.56 0.42 0.34 0.23 0.46 0.54 0.54 0.57 0.45 0.36 0.44 0.35 0.31 0.31 0.32 0.41 0.49 0.60 0.54 0.73 0.83 1.00 1.05 1.08
0.32 0.43 0.52 0.60 0.58 0.46 0.29 0.23 0.28 0.33 0.31 0.25 0.20 0.22 0.19 0.19 0.17 0.17 0.28 0.40 0.44 0.57 0.64 0.50 0.30 0.41 0.50 0.58 0.57 0.47 0.48 0.34 0.34 0.23 0.18 0.25 0.28 0.32 0.44 0.47 0.51 0.63 0.77 0.92 1.07
0.33 0.40 0.59 0.61 0.55 0.40 0.28 0.30 0.33 0.34 0.31 0.28 0.26 0.25 0.26 0.23 0.21 0.17 0.23 0.31 0.47 0.55 0.63 0.55 0.43 0.33 0.50 0.47 0.43 0.46 0.41 0.38 0.35 0.31 0.20 0.17 0.20 0.31 0.35 0.45 0.48 0.55 0.72 0.81 1.01
0.35 0.36 0.62 0.58 0.35 0.42 0.35 0.40 0.42 0.39 0.38 0.33 0.32 0.30 0.28 0.26 0.23 0.20 0.21 0.32 0.46 0.56 0.52 0.60 0.49 0.37 0.42 0.46 0.50 0.56 0.43 0.37 0.26 0.21 0.23 0.19 0.16 0.29 0.29 0.31 0.40 0.43 0.65 0.73 0.83
0.32 0.46 0.63 0.55 0.34 0.35 0.39 0.39 0.43 0.41 0.39 0.36 0.33 0.31 0.30 0.24 0.22 0.25 0.23 0.33 0.48 0.51 0.55 0.61 0.50 0.33 0.33 0.45 0.48 0.44 0.48 0.36 0.29 0.26 0.18 0.16 0.12 0.28 0.32 0.36 0.39 0.39 0.44 0.60 0.77
0.40 0.37 0.48 0.53 0.52 0.43 0.41 0.38 0.37 0.47 0.43 0.42 0.35 0.34 0.29 0.24 0.28 0.25 0.24 0.34 0.46 0.52 0.61 0.64 0.50 0.42 0.33 0.40 0.49 0.37 0.37 0.42 0.30 0.23 0.20 0.17 0.19 0.26 0.30 0.32 0.35 0.40 0.38 0.50 0.67
0.45 0.42 0.51 0.42 0.46 0.49 0.48 0.43 0.38 0.36 0.43 0.43 0.36 0.34 0.30 0.23 0.23 0.23 0.26 0.28 0.39 0.53 0.58 0.58 0.43 0.46 0.45 0.47 0.47 0.43 0.39 0.36 0.33 0.26 0.22 0.19 0.22 0.28 0.33 0.34 0.43 0.42 0.40 0.52 0.67
0.41 0.44 0.55 0.53 0.55 0.51 0.47 0.44 0.42 0.43 0.43 0.36 0.35 0.36 0.34 0.31 0.27 0.22 0.27 0.28 0.35 0.50 0.53 0.58 0.47 0.44 0.38 0.47 0.48 0.43 0.43 0.41 0.37 0.31 0.28 0.26 0.27 0.34 0.36 0.58 0.50 0.47 0.43 0.51 0.65
0.63 0.68 0.61 0.54 0.53 0.49 0.46 0.47 0.44 0.48 0.46 0.45 0.41 0.38 0.29 0.30 0.35 0.32 0.33 0.33 0.43 0.45 0.48 0.52 0.49 0.41 0.37 0.50 0.50 0.42 0.46 0.47 0.42 0.36 0.32 0.26 0.31 0.42 0.47 0.61 0.59 0.54 0.54 0.58 0.69